GFSFLT1_con_mucape_000.txt.gz
CAPE
0 0 0 2 0 0 0 0 0 7 3 3 2 0 0 0 0 0 0 0 0 0 0 0 0 0 0 0 0 0 0 0 0
3 0 0 0 0 0 0 0 0 3 0 4 0 0 0 0 0 2 0 0 0 0 0 0 0 0 0 0 0 0 0 0 0
7 4 22 7 7 0 0 0 0 3 0 0 0 0 0 0 0 0 0 0 0 0 0 0 0 0 0 0 0 0 0 0 0
17 27 27 25 0 0 0 0 0 0 1 0 0 0 0 0 0 0 0 0 0 0 0 0 0 0 0 0 0 0 0 0 0
19 24 17 1 0 0 0 0 0 0 0 0 0 0 0 0 0 0 0 0 0 0 0 0 0 0 0 0 0 0 0 0 0
0 0 5 0 0 0 0 0 0 0 0 0 0 0 0 0 0 0 0 0 0 0 0 0 0 0 0 0 0 0 0 0 0
1 0 0 0 0 0 0 0 0 0 0 0 0 0 0 0 0 0 0 0 0 0 0 0 0 0 0 0 0 0 0 0 0
0 0 0 0 0 0 0 0 0 0 0 0 0 0 0 0 0 0 0 0 0 0 0 0 0 0 0 0 0 0 0 0 0
0 0 0 0 0 0 0 0 0 0 0 0 0 0 0 0 0 0 0 0 0 0 0 0 0 0 0 0 0 0 0 0 0
0 0 0 0 0 0 0 0 0 0 0 0 0 0 0 0 0 0 0 0 0 0 0 0 0 0 0 0 0 0 0 0 0
0 0 0 0 0 0 0 0 0 0 0 0 0 0 0 0 0 0 0 0 0 0 0 0 0 0 0 0 0 0 0 0 0
0 0 0 0 0 0 0 0 0 0 0 0 0 0 0 0 0 0 0 0 0 0 0 0 0 0 0 0 0 0 0 20 24
0 0 0 0 0 0 0 0 0 0 0 0 0 0 0 0 0 0 0 0 0 0 0 0 0 0 0 0 0 0 3 55 82
0 0 0 0 0 0 0 0 0 0 0 0 0 0 0 0 0 0 0 0 0 0 0 0 0 0 0 0 0 0 36 79 132
0 0 0 0 0 0 0 0 0 0 0 0 0 0 0 0 0 0 0 0 0 0 0 0 0 0 0 0 0 0 6 121 163
0 0 0 0 0 0 0 0 0 0 0 0 0 0 0 0 0 0 0 0 0 0 0 0 0 0 0 1 0 3 4 7 136
0 0 0 0 0 0 0 0 0 0 0 0 0 0 0 0 0 0 0 0 0 0 0 0 0 0 0 0 20 96 25 27 52
0 0 0 0 0 0 0 0 0 0 0 0 2 3 0 0 0 0 0 0 0 0 0 0 0 0 0 0 0 26 86 30 140
0 0 0 0 1 2 2 2 0 2 0 3 4 2 0 0 0 0 0 0 0 0 0 0 0 0 0 0 0 34 18 13 46
0 0 0 0 10 7 7 8 9 3 2 0 1 7 3 2 5 1 0 0 0 0 0 0 0 0 0 0 0 3 65 79 130

GFSFLT1_con_mucape_003.txt.gz
CAPE
1 0 0 0 0 0 0 0 0 3 3 8 0 0 0 0 0 0 0 0 0 0 0 0 0 0 0 0 0 0 0 0 0
9 0 0 0 0 0 0 0 0 7 0 4 0 0 0 0 0 0 0 0 0 0 0 0 0 0 0 0 0 0 0 0 0
11 0 4 0 0 0 0 0 0 4 1 0 0 0 0 0 0 0 0 0 0 0 0 0 0 0 0 0 0 0 0 0 0
4 1 14 5 10 0 0 0 0 1 3 0 0 0 0 0 0 0 0 0 0 0 0 0 0 0 0 0 0 0 0 0 0
14 17 28 19 0 0 0 0 0 0 1 3 0 0 0 0 0 0 0 0 0 0 0 0 0 0 0 0 0 0 0 0 0
0 0 18 16 0 0 0 0 0 0 3 0 0 0 0 0 0 0 0 0 0 0 0 0 0 0 0 0 0 0 0 0 0
0 0 7 1 0 0 0 0 0 0 0 0 0 0 0 0 0 0 0 0 0 0 0 0 0 0 0 0 0 0 0 0 0
0 0 0 0 0 0 0 0 0 0 0 0 0 0 0 0 0 0 0 0 0 0 0 0 0 0 0 0 0 0 0 0 0
0 0 0 0 0 0 0 0 0 0 0 0 0 0 0 0 0 0 0 0 0 0 0 0 0 0 0 0 0 0 0 0 0
0 0 0 0 0 0 0 0 0 0 0 0 0 0 0 0 0 0 0 0 0 0 0 0 0 0 0 0 0 0 0 0 0
0 0 0 0 0 0 0 0 0 0 0 0 0 0 0 0 0 0 0 0 0 0 0 0 0 0 0 0 0 15 4 0 0
0 0 0 0 0 0 0 0 0 0 0 0 0 0 0 0 0 0 0 0 0 0 0 0 0 0 0 0 0 75 102 126 160
0 0 0 0 0 0 0 0 0 0 0 0 0 0 0 0 0 0 0 0 0 0 0 0 0 0 0 0 0 22 93 137 181
0 0 0 0 0 0 0 0 0 0 0 0 0 0 0 0 0 0 0 0 0 0 0 0 0 0 0 0 0 0 112 141 205
0 0 0 0 0 0 0 0 0 0 0 0 0 0 0 0 0 0 0 0 0 0 0 0 0 0 0 0 0 0 38 151 260
12 4 0 0 0 0 0 0 0 0 0 0 0 0 0 0 0 0 0 0 0 0 0 0 0 0 0 0 0 0 0 94 198
19 16 9 7 6 0 0 0 0 0 0 0 0 0 0 0 0 0 0 0 0 0 0 0 0 0 0 0 0 0 1 0 16
20 23 22 18 8 0 0 0 3 0 0 0 2 1 0 0 0 0 0 0 0 0 0 0 0 0 0 0 0 0 0 0 10
0 9 12 11 8 0 0 6 15 29 28 17 2 2 0 0 0 0 0 0 0 0 0 0 0 0 0 0 0 0 0 0 13
0 0 6 12 18 17 19 21 96 124 93 71 73 51 4 4 4 3 0 0 0 0 0 0 0 0 0 0 0 0 0 3 43

GFSFLT1_con_mucape_006.txt.gz
CAPE
3 0 0 0 0 0 0 0 0 1 2 3 0 0 0 0 0 0 0 0 0 0 0 0 0 0 0 0 0 0 0 0 0
4 0 0 0 0 0 0 0 0 0 1 4 1 0 0 0 0 0 0 0 0 0 0 0 0 0 0 0 0 0 0 0 0
0 1 0 0 3 1 0 0 0 0 3 0 3 0 0 0 0 0 0 0 0 0 0 0 0 0 0 0 0 0 0 0 0
0 0 17 16 14 1 0 0 0 0 6 3 1 0 0 0 0 0 0 0 0 0 0 0 0 0 0 0 0 0 0 0 0
9 17 19 15 21 3 0 0 0 0 2 5 1 0 0 0 0 0 0 0 0 0 0 0 0 0 0 0 0 0 0 0 0
0 0 5 22 0 0 0 0 0 0 0 4 12 1 0 0 0 0 0 0 0 0 0 0 0 0 0 0 0 0 0 0 0
0 0 0 0 0 0 0 0 0 0 0 0 0 0 0 0 0 0 0 0 0 0 0 0 0 0 0 0 0 0 0 0 0
0 0 0 0 0 0 0 0 0 0 0 0 0 0 0 0 0 0 0 0 1 2 0 0 0 0 0 0 0 0 0 0 0
0 0 0 0 0 0 0 0 0 0 0 0 0 0 0 0 0 0 0 0 0 1 0 0 0 0 0 0 0 0 0 0 0
0 0 0 0 0 0 0 0 0 0 0 0 0 0 0 0 0 0 0 0 0 0 0 0 0 2 1 0 0 0 0 0 0
0 0 0 0 0 0 0 0 0 0 0 0 0 0 0 0 0 0 0 0 0 0 0 0 0 2 4 6 37 78 34 12 37
0 0 0 0 0 0 0 0 0 0 0 0 0 0 0 0 0 0 0 0 0 0 0 0 0 6 0 4 34 246 272 173 182
0 0 0 0 0 0 0 0 0 0 0 0 0 0 0 0 0 0 0 0 0 0 0 0 0 0 0 0 1 179 239 301 328
0 0 0 0 0 0 0 0 0 0 0 0 0 0 0 0 0 0 0 0 0 0 0 0 0 0 0 0 0 20 162 196 263
0 0 0 3 2 0 0 0 0 0 0 0 0 0 0 0 0 0 0 0 0 0 0 0 0 0 0 0 0 0 54 99 210
5 6 5 11 11 12 4 4 0 0 0 0 0 0 0 0 0 0 0 0 0 0 0 0 0 0 0 0 0 0 25 71 123
0 0 0 0 4 4 0 0 0 1 3 5 12 7 0 0 0 0 0 0 0 0 0 0 0 0 0 0 0 0 8 1 56
0 0 0 0 1 0 1 1 3 13 5 3 6 27 2 0 0 0 0 0 0 0 0 0 0 0 0 0 0 0 0 0 0
0 0 0 0 2 5 10 21 21 25 8 5 4 6 10 17 11 0 0 2 3 0 0 0 0 0 0 0 0 0 0 0 0
0 0 0 2 6 19 28 36 50 56 36 40 47 36 19 61 31 38 0 12 21 36 30 34 17 0 0 0 0 0 0 0 0

GFSFLT1_con_mucape_009.txt.gz
CAPE
16 2 0 0 0 0 1 0 2 0 0 0 7 0 0 0 0 0 0 0 0 0 0 0 0 0 0 0 0 0 0 0 0
5 0 0 0 0 0 0 0 0 0 1 0 9 1 0 0 0 0 0 0 0 0 0 0 0 0 0 0 0 0 0 0 0
1 8 3 2 3 1 0 0 0 2 3 4 6 11 0 0 0 0 0 0 0 0 0 0 0 0 0 0 0 0 0 0 0
2 1 1 12 10 15 8 1 0 0 2 6 2 11 1 0 0 0 0 0 0 0 0 0 0 0 0 0 0 0 0 0 0
9 24 0 6 16 17 15 1 0 0 0 4 13 10 3 0 0 0 0 0 1 0 0 0 0 0 0 0 0 0 0 0 0
0 0 0 0 12 24 21 6 1 0 0 0 12 18 0 0 0 0 0 0 0 1 4 0 0 0 0 0 0 0 0 0 0
0 0 0 0 0 13 7 5 6 5 0 0 0 0 0 0 0 0 0 0 0 3 3 3 0 0 0 0 0 0 0 0 0
0 0 0 0 0 0 0 0 0 0 0 0 0 0 0 0 0 0 0 0 0 4 11 12 4 0 0 0 0 0 0 0 0
0 0 0 0 0 0 0 0 0 0 0 0 0 0 0 0 0 0 0 0 0 0 8 24 24 5 0 0 0 0 0 0 0
0 0 0 0 0 0 0 0 0 0 0 0 0 0 0 0 0 0 0 0 0 0 0 24 39 27 18 10 3 6 1 0 0
0 0 0 0 0 0 0 0 0 0 0 0 0 0 0 0 0 0 0 0 0 0 0 2 19 45 52 50 202 194 166 110 102
0 0 0 0 0 0 0 0 0 0 0 0 0 0 0 0 0 0 0 0 0 0 0 0 2 44 26 66 284 349 357 349 276
0 0 0 0 0 0 0 0 0 0 0 0 0 0 0 0 0 0 0 0 0 0 0 0 0 0 32 4 108 249 301 279 284
0 0 0 0 0 0 2 2 0 0 0 0 0 0 0 0 0 0 0 0 0 0 0 0 0 0 0 0 4 56 84 120 289
0 0 0 0 0 0 0 0 0 0 0 0 0 0 0 0 0 0 0 0 0 0 0 0 0 0 0 0 0 25 46 53 120
0 1 4 4 3 1 2 3 2 1 2 9 3 1 0 0 0 0 0 0 0 0 0 0 0 0 0 0 0 0 51 113 120
0 5 5 5 5 1 0 6 11 15 16 12 9 1 0 0 0 0 0 0 0 0 0 0 0 0 0 0 0 0 0 0 207
0 0 0 0 0 0 0 5 14 23 22 31 8 8 12 5 0 0 0 0 0 0 0 0 0 5 3 2 0 0 0 0 0
0 0 0 0 0 1 2 3 13 25 24 22 21 35 47 41 19 6 0 0 0 5 15 11 15 21 37 60 52 31 0 0 0
0 0 0 0 0 0 0 0 29 51 67 44 86 50 37 35 113 41 16 6 0 17 22 30 68 80 55 62 69 44 54 6 4

GFSFLT1_con_mucape_012.txt.gz
CAPE
30 7 0 2 0 0 0 10 6 7 0 0 6 8 0 0 0 0 0 0 0 4 0 0 0 0 0 0 0 0 0 0 0
11 0 0 0 0 1 1 0 5 3 1 0 2 9 4 0 0 0 0 0 0 4 1 0 0 0 0 0 0 0 0 0 0
2 0 0 0 4 6 8 6 1 1 9 8 8 12 24 0 0 0 0 0 0 13 7 0 0 0 0 0 0 0 0 0 0
3 2 9 3 12 22 32 25 19 6 3 5 9 18 23 4 0 0 0 0 0 16 9 4 0 0 0 0 0 0 0 0 0
5 12 18 0 11 33 30 35 27 17 5 1 7 18 18 6 0 0 0 0 0 9 10 5 1 0 0 0 0 0 0 0 0
0 0 0 4 8 15 32 43 32 35 19 0 0 4 0 0 0 0 0 0 0 7 22 16 10 2 1 2 0 0 0 0 0
0 0 0 0 17 17 12 20 36 29 1 0 0 0 0 0 0 0 0 0 0 3 14 21 22 13 3 2 4 2 0 0 0
0 0 0 0 0 0 0 0 0 0 0 0 0 0 0 0 0 0 0 0 0 0 3 14 40 29 20 6 3 5 3 1 0
0 0 0 0 0 0 0 0 0 0 0 0 0 0 0 0 0 0 0 0 0 0 0 5 31 139 65 36 15 18 14 4 2
0 0 0 0 0 0 0 0 0 0 0 0 0 0 0 0 0 0 0 0 0 0 0 0 5 21 159 189 164 123 104 52 79
0 0 0 0 0 0 0 0 0 0 0 0 0 0 0 0 0 0 0 0 0 0 0 0 0 2 25 243 259 229 199 171 161
0 0 0 0 0 0 0 0 0 0 0 0 0 0 0 0 0 0 0 0 0 0 0 0 0 0 0 7 201 294 223 201 213
0 0 0 0 0 0 0 0 0 0 0 0 0 0 0 0 0 0 0 0 0 0 0 0 0 0 0 0 17 112 166 221 246
0 0 0 0 0 0 2 2 8 6 4 3 1 1 0 0 0 0 0 0 0 0 0 0 0 0 0 0 0 34 63 72 123
0 0 0 5 9 5 5 7 15 11 10 11 5 2 0 0 0 0 0 0 0 0 0 0 0 0 0 0 0 16 75 48 53
0 7 9 1 0 0 0 5 4 0 0 14 8 8 2 0 0 0 0 0 0 0 0 0 0 0 0 0 0 0 1 147 171
0 0 0 0 0 0 0 0 0 5 0 8 19 8 2 0 1 0 0 0 0 0 0 0 0 0 0 0 0 2 0 0 38
0 0 0 0 0 0 0 1 5 0 0 13 44 29 37 41 9 6 0 0 0 0 0 0 0 0 2 5 1 18 41 41 25
0 0 0 0 0 0 0 0 0 5 20 21 29 38 45 53 30 27 27 16 2 5 0 0 0 8 15 28 24 56 91 74 71
0 0 0 0 0 0 0 0 0 0 0 0 1 4 0 7 37 8 1 0 14 41 9 3 0 19 30 61 66 64 102 117 126

GFSFLT1_con_mucape_015.txt.gz
CAPE
8 0 0 0 0 0 0 0 14 10 8 6 8 20 13 0 0 0 0 0 0 6 13 10 12 5 4 2 0 0 0 0 0
4 0 0 0 0 0 2 2 1 11 12 9 10 11 23 5 0 0 0 0 10 19 12 6 3 2 0 1 0 0 0 0 0
11 1 0 0 2 10 11 12 4 2 4 13 10 23 11 11 2 0 0 0 2 0 17 9 5 4 1 0 0 0 0 0 0
1 0 6 18 19 10 22 38 33 30 17 12 9 25 30 13 18 0 0 0 0 13 20 28 21 13 4 1 0 0 0 0 0
7 15 17 22 21 20 36 38 43 37 39 23 27 29 30 10 15 5 0 0 0 18 29 35 22 17 9 5 2 0 2 0 0
0 0 0 0 11 14 18 32 44 50 42 16 9 5 0 0 2 4 0 0 0 0 19 26 36 29 21 10 10 6 1 1 2
0 0 0 0 0 0 0 1 4 18 7 3 0 0 0 0 0 0 0 1 5 0 0 12 26 36 61 23 10 12 11 3 1
0 0 0 0 0 0 0 0 0 0 0 0 0 0 0 0 0 0 0 0 1 5 1 2 10 22 46 60 28 17 17 16 10
0 0 0 0 0 0 0 0 0 0 0 0 0 0 0 0 0 0 0 0 0 0 0 0 0 5 25 59 162 139 75 89 102
0 0 0 0 0 0 0 0 0 0 0 0 0 0 0 0 0 0 0 0 0 0 0 0 0 0 2 32 180 198 195 143 112
0 0 0 0 0 0 0 0 0 0 0 0 0 0 0 0 0 0 0 0 0 0 0 0 0 0 0 5 54 185 338 239 191
0 0 0 0 0 0 0 0 0 0 0 0 0 0 0 0 0 0 0 0 0 0 0 0 0 0 0 1 15 34 178 377 306
0 0 0 0 0 0 0 0 0 0 2 2 2 0 0 0 0 0 0 0 0 0 0 0 0 0 0 0 5 47 46 20 229
0 0 0 0 0 4 0 0 0 0 0 0 0 0 0 0 0 0 0 0 0 0 0 0 0 0 0 0 3 124 107 82 99
0 0 0 0 0 0 0 0 0 0 0 0 0 0 0 0 0 0 0 0 0 0 0 0 0 0 0 0 0 16 254 239 182
0 0 0 0 0 0 0 0 0 5 13 9 0 1 4 0 0 0 0 0 0 0 0 0 0 0 0 0 0 0 1 149 310
0 0 0 0 0 0 0 0 0 2 4 29 33 29 6 14 16 11 0 0 0 0 0 0 0 0 0 1 1 0 0 4 65
0 0 0 0 0 0 0 0 0 0 0 0 8 8 0 7 0 11 4 3 3 0 0 0 4 5 4 2 0 19 22 47 61
0 0 0 0 0 0 0 0 0 0 0 0 0 0 2 0 0 0 0 1 5 3 1 8 5 0 0 0 0 24 20 71 72
0 0 0 0 0 0 0 0 0 0 0 0 0 0 0 0 0 0 0 0 0 6 10 1 7 19 60 66 28 0 9 21 147

GFSFLT1_con_mucape_018.txt.gz
CAPE
13 0 0 0 0 0 0 0 6 11 12 0 16 24 19 9 12 0 0 3 6 0 11 12 6 19 18 12 8 0 0 0 0
17 0 0 0 0 0 0 3 2 0 4 10 8 16 20 3 16 5 0 0 16 29 25 22 9 6 11 6 5 0 0 0 0
6 4 0 0 4 8 14 14 15 10 4 3 7 9 35 6 9 12 2 0 0 27 37 22 19 11 8 4 2 2 0 0 0
0 0 5 16 32 18 20 28 39 40 37 29 20 32 29 12 6 7 8 0 0 3 30 19 36 24 16 15 12 3 4 0 0
0 1 8 0 13 14 2 7 32 44 41 20 24 18 7 0 0 1 0 0 0 0 2 23 23 32 28 23 17 10 4 7 2
1 0 0 0 0 0 0 0 0 11 16 18 6 0 1 0 0 0 0 0 3 1 1 4 21 28 43 61 19 17 14 6 7
0 0 0 0 0 0 0 0 0 0 2 3 0 4 0 0 0 0 0 0 0 1 1 1 4 14 34 55 47 25 19 21 9
0 0 0 0 0 0 0 0 0 0 0 2 2 2 2 1 0 0 0 0 0 0 0 2 0 2 8 20 39 100 57 40 38
0 0 0 0 0 0 0 0 0 0 1 1 0 2 2 1 0 0 0 0 0 0 0 0 2 4 3 11 37 120 170 157 110
0 0 0 0 0 0 1 1 1 0 1 1 0 1 0 0 0 0 0 0 0 0 0 0 0 0 3 6 24 39 224 268 233
0 0 0 0 0 0 0 0 0 0 0 0 0 0 2 2 2 2 0 0 0 0 0 0 0 0 0 0 22 28 148 273 394
0 0 0 0 1 0 0 0 0 3 4 5 4 5 6 4 5 7 3 2 0 0 0 1 1 1 2 2 12 69 84 115 236
0 0 1 1 0 0 0 0 9 12 14 13 14 14 10 4 5 4 3 2 0 0 0 0 0 1 27 63 80 181 126 111 131
0 0 0 0 0 0 3 4 5 7 10 5 7 7 5 5 7 9 5 1 0 0 0 0 0 0 0 7 75 192 291 224 191
0 0 0 0 0 0 0 0 0 1 6 4 5 3 0 1 4 11 15 22 17 15 13 6 1 0 0 0 1 21 90 275 262
0 0 0 0 0 0 0 0 0 0 0 0 0 0 0 7 1 33 36 18 22 31 57 58 46 25 9 0 0 1 28 83 223
0 0 0 0 0 0 0 0 0 0 0 0 0 0 0 0 0 0 0 0 0 1 33 55 74 96 120 88 42 12 21 75 155
0 0 0 0 0 0 0 0 0 0 0 0 0 0 0 0 0 0 0 0 0 0 0 3 7 19 47 83 97 33 43 68 135
0 0 0 0 0 0 0 0 0 0 0 0 0 0 0 0 0 0 0 0 0 0 0 0 0 1 8 68 72 72 120 186 253
0 0 0 0 0 0 0 0 0 0 0 0 0 0 0 0 0 0 0 0 0 0 0 0 3 2 12 24 39 114 52 119 196

GFSFLT1_con_mucape_021.txt.gz
CAPE
16 0 0 0 0 0 0 0 0 0 8 0 0 13 28 14 2 3 0 0 0 3 0 10 9 3 16 20 9 6 3 0 0
17 5 0 0 0 0 1 1 0 0 0 0 0 7 25 0 0 0 8 0 0 9 14 11 16 8 4 7 8 9 6 0 0
21 12 0 0 0 3 6 18 18 14 6 3 0 1 9 0 0 0 0 3 0 0 5 20 14 19 11 5 6 2 3 0 0
0 0 0 0 2 16 0 1 16 18 15 9 7 13 9 0 0 0 0 3 0 0 0 7 23 34 38 14 9 6 2 2 2
0 0 0 0 0 0 0 0 0 0 3 16 20 9 0 0 0 0 0 0 0 0 0 0 7 23 33 50 25 13 6 3 7
1 0 0 0 0 0 0 0 0 0 0 0 0 1 0 0 0 0 0 0 0 0 1 0 2 7 22 46 49 37 9 14 9
0 0 0 0 0 0 0 0 0 0 0 2 3 0 0 1 0 0 0 0 0 0 0 2 4 4 8 26 52 38 44 21 25
0 0 0 0 0 0 0 0 0 0 0 0 0 0 0 0 0 0 0 0 0 0 0 0 0 3 4 5 10 45 151 190 110
0 0 0 0 0 0 0 0 0 0 0 0 0 0 0 1 1 0 0 0 0 0 0 2 0 0 2 4 9 25 127 208 257
0 0 0 0 0 0 0 0 0 3 6 7 6 10 10 13 14 10 1 5 4 0 0 5 12 8 1 0 27 64 93 158 215
2 1 3 3 4 4 6 6 10 13 10 15 14 17 26 24 22 23 16 7 9 4 0 0 10 52 58 35 46 21 81 99 146
3 3 5 11 14 12 9 11 30 25 38 23 8 22 19 13 8 8 12 23 19 25 29 15 0 11 94 116 133 205 113 106 118
4 9 9 15 31 39 57 5 12 8 7 6 0 0 0 0 0 0 5 23 21 22 49 53 30 10 14 39 146 228 266 244 179
5 5 2 0 0 0 0 0 0 0 0 0 0 0 0 0 0 0 1 9 37 37 23 24 36 38 5 12 34 64 216 255 260
0 0 0 0 0 0 0 0 0 0 0 0 0 0 0 0 0 6 19 21 28 11 20 63 75 42 73 103 119 125 118 144 255
0 0 0 0 0 0 0 0 0 0 0 0 0 0 0 0 0 0 0 5 0 0 0 0 22 44 147 160 212 176 199 208 186
0 0 0 0 0 0 0 0 0 0 0 0 0 0 0 0 0 0 0 0 0 0 0 0 5 8 0 0 103 180 191 150 195
0 0 0 0 0 0 0 0 0 0 0 0 0 0 0 0 0 0 0 0 0 0 0 0 0 0 0 0 0 8 183 121 138
0 0 0 0 0 0 0 0 0 0 0 0 0 0 0 0 0 0 0 0 0 0 0 0 0 0 0 0 12 58 16 28 92
0 0 0 0 0 0 0 0 0 0 0 0 0 0 0 0 0 0 0 0 0 0 0 0 0 0 0 4 0 19 5 8 18

GFSFLT1_con_mucape_024.txt.gz
CAPE
20 6 0 0 0 0 0 0 0 0 0 0 0 0 0 0 0 0 0 0 0 0 4 0 0 0 0 12 22 12 6 1 0
28 9 0 0 0 0 0 0 0 0 0 0 0 0 0 0 0 0 0 0 0 0 6 11 4 3 11 2 6 7 3 5 0
62 17 0 0 0 0 0 0 2 13 5 1 1 1 0 0 0 0 0 0 0 0 0 2 5 23 6 14 4 5 4 5 3
0 0 0 0 0 0 0 0 0 1 9 17 20 18 2 0 0 0 0 0 0 1 0 0 1 9 9 18 15 3 4 6 6
6 5 20 0 0 0 0 0 0 0 0 0 2 8 0 0 0 0 0 0 0 0 0 0 0 2 5 26 17 32 12 10 10
0 0 0 0 0 0 0 0 0 0 0 0 0 0 0 0 0 0 0 0 0 0 0 0 2 2 4 4 79 65 41 31 20
0 0 0 0 0 0 0 0 0 0 0 0 0 0 0 0 0 0 0 0 0 0 0 0 1 4 4 6 10 23 90 69 137
0 0 0 0 0 0 0 0 0 0 0 0 0 0 0 0 0 0 10 29 3 0 0 0 1 7 7 7 9 21 104 269 302
0 0 0 0 0 0 0 0 0 0 0 0 2 1 5 5 4 1 3 45 37 20 23 34 21 22 22 16 20 82 95 125 221
0 0 0 0 0 0 0 0 2 6 9 12 21 11 12 18 15 12 7 26 89 95 49 43 47 53 44 111 139 110 123 162 165
0 0 2 18 8 10 10 23 8 7 15 10 11 5 6 3 3 0 0 4 62 136 102 69 112 126 116 92 162 188 236 178 178
2 3 13 12 8 21 14 11 7 2 0 0 0 0 0 0 0 0 0 0 0 50 163 279 181 104 132 136 80 149 191 215 277
0 14 6 10 9 0 0 0 0 0 0 0 0 0 0 0 0 0 0 0 0 20 132 212 164 189 94 118 118 114 206 210 194
4 2 0 0 0 0 0 0 0 0 0 0 0 0 0 0 0 0 0 0 0 6 13 37 98 160 216 156 128 144 201 211 251
0 0 0 0 0 0 0 0 0 0 0 0 0 0 0 0 0 0 0 0 0 0 16 31 12 1 20 4 5 41 97 195 206
0 0 0 0 0 0 0 0 0 0 0 0 0 0 0 0 0 0 0 0 0 0 0 0 0 0 0 4 14 19 10 0 29
0 0 0 0 0 0 0 0 0 0 0 0 0 0 0 0 0 0 0 0 0 0 0 0 0 0 0 0 0 0 0 0 12
0 0 0 0 0 0 0 0 0 0 0 0 0 0 0 0 0 0 0 0 0 0 0 0 0 0 0 0 0 0 0 0 22
0 0 0 0 0 0 0 0 0 0 0 0 0 0 0 0 0 0 0 0 0 0 0 0 0 0 0 0 0 10 67 11 28
0 0 0 0 0 0 0 0 0 0 0 0 0 0 0 0 0 0 0 0 0 0 0 0 0 0 0 0 0 3 0 0 0

GFSFLT1_con_mucape_027.txt.gz
CAPE
13 6 0 0 0 0 0 0 0 0 0 0 0 0 0 0 0 0 0 0 0 0 3 0 0 1 1 7 29 33 28 18 6
28 9 0 0 0 0 0 0 0 0 0 0 0 0 0 0 0 0 0 0 0 1 0 13 15 7 0 3 5 14 17 8 7
56 3 0 0 0 0 0 0 0 12 17 12 5 4 0 0 0 0 0 0 0 3 4 1 4 11 19 24 16 9 8 8 8
0 31 0 0 0 0 0 0 0 0 3 8 28 36 1 0 0 0 0 0 0 0 4 4 1 2 6 25 20 22 14 10 8
27 34 31 3 0 0 0 0 0 0 0 0 1 0 0 0 0 0 0 0 0 0 1 2 3 5 5 11 18 18 36 39 18
0 0 0 47 0 0 0 0 0 0 0 0 0 0 0 0 0 0 0 0 0 0 0 2 0 4 8 10 16 20 30 36 153
0 0 0 0 0 0 0 0 16 0 0 0 0 0 0 0 0 0 0 0 5 13 64 47 24 0 0 5 13 17 20 30 208
0 0 0 0 0 0 0 0 0 0 0 0 0 1 4 5 8 6 11 52 51 90 148 142 127 59 34 32 27 27 63 33 129
0 0 0 0 0 0 0 0 0 1 3 3 7 15 19 18 11 15 19 81 92 87 221 292 242 298 100 79 111 285 195 188 186
1 1 0 0 0 1 1 3 3 5 12 19 17 13 2 3 1 0 0 20 80 66 54 80 321 201 131 125 185 184 134 141 242
32 26 16 11 5 32 5 5 5 11 7 1 0 0 0 0 0 0 0 0 0 26 24 79 105 87 104 115 185 195 182 158 142
51 29 42 20 26 14 2 2 1 0 0 0 0 0 0 0 0 0 0 0 0 0 0 4 6 42 91 99 105 175 191 193 206
77 17 32 56 4 0 0 0 0 0 0 0 0 0 0 0 0 0 0 0 0 0 0 5 0 3 1 6 31 90 161 163 169
1 0 0 0 0 0 0 0 0 0 0 0 0 0 0 0 0 0 0 0 0 0 0 2 1 0 7 0 7 0 0 4 0
0 0 0 0 0 0 0 0 0 0 0 0 0 0 0 0 0 0 0 0 0 0 0 0 0 0 1 0 0 0 0 0 0
0 0 0 0 0 0 0 0 0 0 0 0 0 0 0 0 0 0 0 0 0 0 0 0 0 0 0 0 0 0 0 0 0
0 0 0 0 0 0 0 0 0 0 0 0 0 0 0 0 0 0 0 0 0 0 0 0 0 0 0 0 0 0 0 0 1
0 0 0 0 0 0 0 0 0 0 0 0 0 0 0 0 0 0 0 0 0 0 0 0 0 0 0 0 0 0 0 2 5
0 0 0 0 0 0 0 0 0 0 0 0 0 0 0 0 0 0 0 0 0 0 0 0 0 0 0 0 0 0 0 0 2
0 0 0 0 0 0 0 0 0 0 0 0 0 0 0 0 0 0 0 0 0 0 0 0 0 0 0 0 0 0 0 0 4

GFSFLT1_con_mucape_030.txt.gz
CAPE
0 4 0 0 0 0 0 0 0 0 0 0 0 0 0 0 0 0 0 0 0 0 2 26 15 5 8 9 44 67 63 59 29
17 5 0 0 0 0 0 0 0 0 0 0 0 0 0 0 0 0 0 0 0 0 15 9 35 21 17 19 20 26 32 63 30
45 0 0 0 0 0 0 0 0 1 18 42 17 31 10 0 0 0 0 0 0 0 12 15 8 8 18 23 26 37 23 26 28
78 55 3 0 0 0 0 0 0 0 0 0 15 145 113 0 0 0 0 0 0 0 0 9 13 12 12 14 21 36 30 42 25
47 116 78 1 3 0 0 0 0 0 0 0 29 37 9 0 0 0 0 0 0 0 0 0 8 8 6 4 6 13 39 37 53
0 0 1 38 26 5 0 0 0 35 33 26 21 0 0 0 0 0 0 0 19 17 19 85 17 5 29 20 12 9 11 15 28
0 0 2 18 90 37 1 6 74 37 0 0 0 0 0 0 0 1 5 25 63 90 182 138 150 97 85 74 27 28 26 20 21
0 0 0 0 0 0 0 0 0 0 0 0 0 0 5 11 13 15 19 42 70 97 291 298 126 107 129 121 56 147 90 115 118
0 0 0 0 0 0 0 0 0 1 4 4 4 3 7 9 1 0 0 10 7 12 15 33 135 175 181 105 136 174 107 123 148
0 3 6 20 10 23 31 6 7 6 7 4 6 2 0 0 0 0 0 0 0 0 0 2 8 26 201 138 170 166 148 141 165
38 29 29 4 20 37 10 25 20 7 0 0 0 0 0 0 0 0 0 0 0 0 0 0 0 0 4 19 35 78 86 81 144
44 11 3 1 30 22 16 1 0 0 0 0 0 0 0 0 0 0 0 0 0 0 0 0 0 0 0 0 0 3 5 0 0
79 30 5 2 2 0 0 0 0 0 0 0 0 0 0 0 0 0 0 0 0 0 0 0 0 0 3 0 0 1 0 0 0
1 0 0 0 0 0 0 0 0 0 0 0 0 0 0 0 0 0 0 0 0 0 0 0 0 0 0 0 0 0 0 0 0
0 0 0 0 0 0 0 0 0 0 0 0 0 0 0 0 0 0 0 0 0 0 0 0 0 0 0 0 0 0 0 0 0
0 0 0 0 0 0 0 0 0 0 0 0 0 0 0 0 0 0 0 0 0 0 0 0 0 0 0 0 0 0 0 0 0
0 0 0 0 0 0 0 0 0 0 0 0 0 0 0 0 0 0 0 0 0 0 0 0 0 0 0 0 0 0 0 0 0
0 0 0 0 0 0 0 0 0 0 0 0 0 0 0 0 0 0 0 0 0 0 0 0 0 0 0 0 0 0 0 0 1
0 0 0 0 0 0 0 0 0 0 0 0 0 0 0 0 0 0 0 0 0 0 0 0 0 0 0 0 0 0 0 0 0
0 0 0 0 0 0 0 0 0 0 0 0 0 0 0 0 0 0 0 0 0 0 0 0 0 0 0 0 0 0 0 0 0

GFSFLT1_con_mucape_033.txt.gz
CAPE
4 0 0 0 0 0 0 0 0 0 0 0 0 0 0 0 0 0 0 0 0 0 7 10 25 23 26 25 32 107 108 115 97
4 9 0 0 0 0 0 0 0 0 1 1 1 1 2 0 0 0 0 0 0 0 10 26 19 41 42 32 23 29 25 39 88
21 5 0 0 0 0 0 0 0 0 5 9 17 21 63 0 0 0 0 0 0 0 0 8 24 16 12 9 22 35 51 52 41
70 19 1 0 0 0 0 0 0 0 0 0 15 94 116 24 0 0 0 0 0 1 0 4 11 15 19 12 4 5 1 35 42
97 145 78 1 0 0 0 0 0 0 0 0 54 55 37 0 0 0 0 0 33 92 62 68 31 18 23 23 17 8 12 5 39
0 1 7 38 13 19 17 1 5 58 48 25 59 10 0 0 0 0 0 10 55 201 232 183 110 90 184 170 126 34 42 36 21
0 0 0 18 31 103 19 46 174 70 0 0 0 0 0 3 2 4 10 30 62 164 229 176 133 97 134 148 139 62 86 80 83
0 0 0 0 0 0 0 0 0 0 0 0 0 0 0 0 4 2 0 0 0 1 1 0 12 34 99 107 121 146 112 118 168
0 0 0 0 0 0 0 1 4 2 2 0 0 1 1 0 0 0 0 0 0 0 0 0 0 0 0 99 125 159 118 95 112
0 0 0 0 1 3 33 30 12 13 9 4 1 0 0 0 0 0 0 0 0 0 0 0 0 0 0 0 3 12 16 19 30
74 27 28 18 2 12 17 6 7 3 0 0 0 0 0 0 0 0 0 0 0 0 0 0 0 0 0 0 0 0 0 0 0
23 105 3 1 3 2 6 5 0 0 0 0 0 0 0 0 0 0 0 0 0 0 0 0 0 0 0 0 0 0 0 0 1
9 6 6 0 1 0 0 0 0 0 0 0 0 0 0 0 0 0 0 0 0 0 0 0 0 0 0 0 0 0 0 0 0
8 2 0 0 0 0 0 0 0 0 0 0 0 0 0 0 0 0 0 0 0 0 0 0 0 0 0 0 0 0 0 0 0
0 0 0 0 0 0 0 0 0 0 0 0 0 0 0 0 0 0 0 0 0 0 0 0 0 0 0 0 0 0 0 0 0
0 0 0 0 0 0 0 0 0 0 0 0 0 0 0 0 0 0 0 0 0 0 0 0 0 0 0 0 0 0 0 0 0
0 0 0 0 0 0 0 0 0 0 0 0 0 0 0 0 0 0 0 0 0 0 0 0 0 0 0 0 0 0 0 0 0
0 0 0 0 0 0 0 0 0 0 0 0 0 0 0 0 0 0 0 0 0 0 0 0 0 0 0 0 0 0 0 0 0
0 0 0 0 0 0 0 0 0 0 0 0 0 0 0 0 0 0 0 0 0 0 0 0 0 0 0 0 0 0 0 0 0
0 0 0 0 0 0 0 0 0 0 0 0 0 0 0 0 0 0 0 0 0 0 0 0 0 0 0 0 0 0 0 0 0

GFSFLT1_con_mucape_036.txt.gz
CAPE
9 0 0 0 0 0 0 0 0 0 0 0 0 0 0 0 0 0 0 0 0 0 0 4 6 19 22 22 11 1 52 118 94
12 7 0 0 0 0 0 0 0 0 0 4 6 5 9 0 0 0 0 0 0 0 0 7 19 20 30 57 27 4 1 3 2
41 16 0 0 0 0 0 0 0 0 0 6 12 40 72 19 5 0 0 0 2 5 3 1 3 15 15 5 1 10 22 38 57
49 26 1 0 0 0 1 0 0 1 0 0 9 55 55 8 0 0 0 0 27 142 131 83 36 14 19 23 12 2 0 0 2
106 69 46 0 0 0 2 0 0 0 0 0 66 58 22 0 0 0 0 2 122 259 324 346 307 237 144 301 83 36 28 17 12
0 0 17 41 14 17 24 11 14 74 28 4 0 0 0 0 0 0 0 17 174 298 327 334 303 331 315 271 245 215 95 96 123
0 0 0 1 21 23 17 12 12 0 0 0 0 0 0 1 2 0 0 0 6 19 18 12 14 30 63 123 132 159 146 112 243
0 0 0 0 0 0 0 0 0 2 0 0 0 1 0 0 0 0 0 0 0 0 0 0 0 0 0 7 90 114 108 100 109
0 0 0 0 0 0 2 1 5 10 6 2 2 0 0 0 0 0 0 0 0 0 0 0 0 0 1 9 5 0 1 3 3
0 0 0 0 3 2 6 8 3 5 2 1 0 0 0 0 0 0 0 0 0 0 0 0 0 0 0 0 0 0 0 1 0
18 16 9 45 7 5 5 4 2 0 0 0 0 0 0 0 0 0 0 0 0 0 0 0 0 0 0 0 0 0 0 0 0
27 4 26 1 0 2 3 0 0 0 0 0 0 0 0 0 0 0 0 0 0 0 0 0 0 0 0 0 0 0 0 0 0
53 7 8 3 0 0 0 0 0 0 0 0 0 0 0 0 0 0 0 0 0 0 0 0 0 0 0 0 0 0 0 0 0
8 0 0 0 0 0 0 0 0 0 0 0 0 0 0 0 0 0 0 0 0 0 0 0 0 0 0 0 0 0 0 0 0
28 0 0 0 0 0 0 0 0 0 0 0 0 0 0 0 0 0 0 0 0 0 0 0 0 0 0 0 0 0 0 0 0
0 0 0 0 0 0 0 0 0 0 0 0 0 0 0 0 0 0 0 0 0 0 0 0 0 0 0 0 0 0 0 0 0
0 0 0 0 0 0 0 0 0 0 0 0 0 0 0 0 0 0 0 0 0 0 0 0 0 0 0 0 0 0 0 0 0
0 0 0 0 0 0 0 0 0 0 0 0 0 0 0 0 0 0 0 0 0 0 0 0 0 0 0 0 0 0 0 0 0
0 0 0 0 0 0 0 0 0 0 0 0 0 0 0 0 0 0 0 0 0 0 0 0 0 0 0 0 0 0 0 0 0
0 0 0 0 0 0 0 0 0 0 0 0 0 0 0 0 0 0 0 0 0 0 0 0 0 0 0 0 0 0 0 0 0

GFSFLT1_con_mucape_039.txt.gz
CAPE
4 0 0 0 0 0 0 0 0 0 0 0 0 0 0 0 0 0 0 0 0 0 0 0 0 0 12 10 9 3 3 79 206
11 7 0 0 0 0 0 0 0 0 0 9 12 12 12 5 1 0 0 0 1 14 3 0 10 17 23 22 64 7 0 0 20
28 22 1 0 0 0 0 1 4 3 0 2 4 17 30 0 0 0 0 0 9 82 56 67 1 1 17 7 0 0 0 13 44
149 43 4 0 0 0 1 1 0 0 0 0 0 34 7 0 0 0 0 0 21 141 189 250 246 175 113 75 133 71 16 7 0
145 52 28 1 0 0 4 3 0 0 1 9 18 15 0 0 0 0 0 0 118 252 254 266 321 365 367 348 277 261 144 134 118
2 0 4 24 0 10 26 18 33 54 3 0 0 0 0 0 0 0 0 2 19 73 57 20 34 63 68 94 208 261 247 208 312
0 0 0 0 0 0 0 0 0 0 0 0 0 0 0 0 0 0 0 0 0 0 0 0 0 0 0 0 20 100 196 186 234
0 0 0 0 0 0 0 0 0 0 0 0 0 0 0 0 0 0 0 0 0 0 0 0 0 0 1 6 0 0 4 10 4
0 0 0 0 0 0 0 0 1 1 2 2 1 0 0 0 0 0 0 0 0 0 0 0 0 0 0 0 0 0 0 0 0
0 0 0 0 4 1 3 2 1 1 0 0 0 0 0 0 0 0 0 0 0 0 0 0 0 0 0 0 0 0 0 0 0
3 0 4 6 10 3 0 1 0 0 0 0 0 0 0 0 0 0 0 0 0 0 0 0 0 0 0 0 0 0 0 0 0
5 8 7 5 0 0 0 0 0 0 0 0 0 0 0 0 0 0 0 0 0 0 0 0 0 0 0 0 0 0 0 0 0
24 5 1 1 0 0 0 0 0 0 0 0 0 0 0 0 0 0 0 0 0 0 0 0 0 0 0 0 0 0 0 0 0
18 7 2 0 0 0 0 0 0 0 0 0 0 0 0 0 0 0 0 0 0 0 0 0 0 0 0 0 0 0 0 0 0
47 7 2 0 0 0 0 0 0 0 0 0 0 0 0 0 0 0 0 0 0 0 0 0 0 0 0 0 0 0 0 0 0
4 0 0 0 0 0 0 0 0 0 0 0 0 0 0 0 0 0 0 0 0 0 0 0 0 0 0 0 0 0 0 0 0
6 0 0 0 0 0 0 0 0 0 0 0 0 0 0 0 0 0 0 0 0 0 0 0 0 0 0 0 0 0 0 0 0
2 0 0 0 0 0 0 0 0 0 0 0 0 0 0 0 0 0 0 0 0 0 0 0 0 0 0 0 0 0 0 0 0
2 0 0 0 0 0 0 0 0 0 0 0 0 0 0 0 0 0 0 0 0 0 0 0 0 0 0 0 0 0 0 0 0
0 0 0 0 0 0 0 0 0 0 0 0 0 0 0 0 0 0 0 0 0 0 0 0 0 0 0 0 0 0 0 0 0

GFSFLT1_con_mucape_042.txt.gz
CAPE
0 0 0 0 0 0 0 0 0 0 0 0 0 0 0 0 14 12 4 0 0 1 0 0 0 1 0 12 26 31 7 7 185
9 1 0 0 0 0 0 0 0 0 0 13 15 26 9 10 21 13 9 7 0 14 21 8 0 11 35 56 27 126 3 1 0
11 12 1 0 0 0 0 0 0 0 0 0 0 2 0 2 7 5 7 0 0 63 91 102 135 82 56 87 44 0 0 0 48
38 31 4 0 0 0 0 2 0 0 0 0 0 0 0 2 15 1 9 0 38 177 238 247 318 342 326 178 189 242 235 159 118
192 69 30 0 0 0 5 4 0 1 1 0 0 0 0 25 13 14 6 6 58 137 130 86 88 144 164 240 341 397 285 293 290
57 8 16 24 0 0 8 8 16 4 0 0 0 0 19 16 17 17 0 0 0 0 0 0 0 4 20 9 76 177 269 285 353
0 0 0 0 0 0 0 0 0 0 15 23 0 2 0 0 0 0 0 0 0 0 0 0 0 0 3 23 0 0 21 65 55
0 0 0 0 0 5 0 6 10 1 0 0 0 0 0 0 0 0 0 0 0 0 0 0 0 0 0 0 0 0 0 0 0
0 1 0 0 0 8 16 0 0 2 0 0 0 0 0 0 0 0 0 0 0 0 0 0 0 0 0 0 0 0 0 0 0
12 0 4 7 4 1 0 0 1 1 0 0 0 0 0 0 0 0 0 0 0 0 0 0 0 0 0 0 0 0 0 0 0
8 0 2 7 3 2 2 0 0 0 0 0 0 0 0 0 0 0 0 0 0 0 0 0 0 0 0 0 0 0 0 0 0
2 4 8 1 1 0 0 0 0 0 0 0 0 0 0 0 0 0 0 0 0 0 0 0 0 0 0 0 0 0 0 0 0
7 15 1 1 0 0 0 0 0 0 0 0 0 0 0 0 0 0 0 0 0 0 0 0 0 0 0 0 0 0 0 0 0
23 19 3 3 0 0 0 0 0 0 0 0 0 0 0 0 0 0 0 0 0 0 0 0 0 0 0 0 0 0 0 0 0
95 33 0 0 0 0 0 0 0 0 0 0 0 0 0 0 0 0 0 0 0 0 0 0 0 0 0 0 0 0 0 0 0
116 41 2 0 0 0 0 0 0 0 0 0 0 0 0 0 0 0 0 0 0 0 0 0 0 0 0 0 0 0 0 0 0
163 0 1 0 0 0 0 0 0 0 0 0 0 0 0 0 0 0 0 0 0 0 0 0 0 0 0 0 0 0 0 0 0
34 0 0 0 0 0 0 0 0 0 0 0 0 0 0 0 0 0 0 0 0 0 0 0 0 0 0 0 0 0 0 0 0
7 0 0 0 0 0 0 0 0 0 0 0 0 0 0 0 0 0 0 0 0 0 0 0 0 0 0 0 0 0 0 0 0
19 0 0 0 0 0 0 0 0 0 0 0 0 0 0 0 0 0 0 0 0 0 0 0 0 0 0 0 0 0 0 0 0

GFSFLT1_con_mucape_045.txt.gz
CAPE
0 0 0 0 0 0 0 0 0 0 0 0 0 0 0 0 18 8 7 4 0 2 1 0 0 0 1 0 4 36 62 27 25
1 0 0 0 0 0 0 0 0 0 0 0 6 8 0 0 14 13 15 15 0 14 62 24 61 32 22 37 119 42 116 69 14
1 0 0 0 0 0 0 0 0 0 0 0 0 0 0 0 10 12 16 0 0 71 75 129 246 287 246 143 77 112 32 33 20
57 15 0 0 0 0 0 0 0 0 0 0 0 0 0 0 16 13 28 21 70 124 120 102 80 144 156 197 287 306 250 298 304
194 82 29 0 0 0 2 0 0 0 0 0 0 0 0 2 11 19 2 0 0 14 2 0 6 19 33 19 94 182 245 286 415
36 14 64 17 0 0 5 0 0 0 0 0 0 0 8 14 14 8 0 0 0 0 0 0 0 0 7 32 2 3 34 89 95
49 1 3 5 4 0 0 0 0 0 20 6 0 2 0 0 0 0 0 0 0 0 0 0 1 2 0 0 0 0 0 1 0
0 0 0 0 0 5 0 3 0 0 0 0 0 0 0 0 0 0 0 0 0 0 0 0 0 0 0 0 0 0 0 0 0
0 1 9 7 7 26 23 1 0 0 0 0 0 0 0 0 0 0 0 0 0 0 0 0 0 0 0 0 0 0 0 0 0
22 6 3 13 9 1 0 0 0 0 0 0 0 0 0 0 0 0 0 0 0 0 0 0 0 0 0 0 0 0 0 0 0
60 57 6 0 1 2 0 0 0 0 0 0 0 0 0 0 0 0 0 0 0 0 0 0 0 0 0 0 0 0 0 0 0
70 0 0 0 0 0 0 0 0 0 0 0 0 0 0 0 0 0 0 0 0 0 0 0 0 0 0 0 0 0 0 0 0
2 0 0 0 0 0 0 0 0 0 0 0 0 0 0 0 0 0 0 0 0 0 0 0 0 0 0 0 0 0 0 0 0
15 10 6 0 0 0 0 0 0 0 0 0 0 0 0 0 0 0 0 0 0 0 0 0 0 0 0 0 0 0 0 0 0
36 33 24 0 0 0 0 0 0 0 0 0 0 0 0 0 0 0 0 0 0 0 0 0 0 0 0 0 0 0 0 0 0
120 105 44 31 0 0 0 0 0 0 0 0 0 0 0 0 0 0 0 0 0 0 0 0 0 0 0 0 0 0 0 0 0
236 166 28 7 0 0 0 0 0 0 0 0 0 0 0 0 0 0 0 0 0 0 0 0 0 0 0 0 0 0 0 0 0
196 190 36 15 0 0 0 0 0 0 0 0 0 0 0 0 0 0 0 0 0 0 0 0 0 0 0 0 0 0 0 0 0
164 129 8 0 0 0 0 0 0 0 0 0 0 0 0 0 0 0 0 0 0 0 0 0 0 0 0 0 0 0 0 0 0
217 35 5 10 0 0 0 0 0 0 0 0 0 0 0 0 0 0 0 0 0 0 0 0 0 0 0 0 0 0 0 0 0

GFSFLT1_con_mucape_048.txt.gz
CAPE
0 0 0 0 0 0 0 0 0 0 0 0 0 0 0 3 3 10 3 0 0 0 8 4 0 0 0 9 10 0 42 69 19
0 0 0 0 0 0 0 0 0 0 0 0 0 0 0 0 0 5 7 3 5 37 48 44 127 140 105 53 29 81 39 51 46
10 0 0 0 0 0 0 0 0 0 0 0 0 0 0 0 9 12 11 39 51 122 78 126 96 132 172 204 256 112 129 138 65
55 6 0 0 0 0 0 0 0 0 0 0 0 0 0 0 12 7 8 21 12 25 18 3 28 62 51 65 164 231 231 269 316
193 83 29 0 0 0 0 0 0 0 0 0 0 0 0 5 8 7 5 2 0 0 0 0 0 1 39 49 33 48 116 151 135
59 19 37 45 9 3 9 4 4 11 4 4 0 0 5 5 3 0 0 0 0 0 0 0 5 19 4 4 2 3 7 1 0
24 10 35 49 26 13 6 0 0 0 3 4 0 0 0 0 0 0 0 0 0 0 0 2 0 0 0 0 0 0 0 0 0
24 0 0 0 0 0 1 1 0 0 0 0 0 0 0 0 0 0 0 0 0 0 4 0 0 0 0 0 0 0 0 0 0
0 0 0 0 0 4 2 0 1 0 0 0 0 0 0 0 0 0 0 0 0 2 0 0 0 0 0 0 0 0 0 0 0
0 0 0 1 2 1 2 0 0 0 0 0 0 0 0 0 0 0 0 0 0 0 0 0 0 0 0 0 0 0 0 0 0
5 2 5 2 0 0 0 0 0 0 0 0 0 0 0 0 0 0 0 0 0 0 0 0 0 0 0 0 0 0 0 0 0
54 49 31 1 0 0 0 0 0 0 0 0 0 0 0 0 0 0 0 0 0 0 0 0 0 0 0 0 0 0 0 0 0
66 57 0 0 0 0 0 0 0 0 0 0 0 0 0 0 0 0 0 0 0 0 0 0 0 0 0 0 0 0 0 0 0
68 0 0 0 0 0 0 0 0 0 0 0 0 0 0 0 0 0 0 0 0 0 0 0 0 0 0 0 0 0 0 0 0
129 0 0 0 0 0 0 0 0 0 0 0 0 0 0 0 0 0 0 0 0 0 0 0 0 0 0 0 0 0 0 0 0
126 51 0 19 0 0 0 0 0 0 0 0 0 0 0 0 0 0 0 0 0 0 0 0 0 0 0 0 0 0 0 0 0
224 139 91 106 1 0 0 0 0 0 0 0 0 0 0 0 0 0 0 0 0 0 0 0 0 0 0 0 0 0 0 0 0
319 242 204 152 1 0 0 0 0 0 0 0 0 0 0 0 0 0 0 0 0 0 0 0 0 0 0 0 0 0 0 0 0
388 252 248 229 57 0 0 0 0 0 0 0 0 0 0 0 0 0 0 0 0 0 0 0 0 0 0 0 0 0 0 0 0
439 242 222 128 29 28 0 0 0 0 0 0 0 0 0 0 0 0 0 0 0 0 0 0 0 0 0 0 0 0 0 0 0

GFSFLT1_con_mucape_051.txt.gz
CAPE
0 0 0 0 0 0 0 0 0 0 0 0 0 0 0 6 2 2 13 0 12 9 17 4 1 0 0 0 0 0 0 43 44
0 0 0 0 0 0 0 0 0 0 0 0 0 0 0 0 3 10 5 15 29 40 23 94 97 133 125 139 48 25 59 9 60
0 0 0 0 0 0 0 0 0 0 0 0 0 0 0 1 8 14 15 55 63 65 51 22 30 64 69 116 219 211 180 195 212
14 0 0 0 0 0 0 0 0 0 0 0 0 0 0 3 9 7 2 40 25 8 0 1 3 1 96 94 108 196 234 220 220
91 45 0 0 0 0 0 0 0 0 0 0 0 0 0 3 7 2 7 14 7 0 0 0 27 47 20 15 15 8 13 7 13
35 0 15 29 9 6 7 7 5 13 0 0 0 0 0 0 1 0 0 0 0 0 0 12 5 6 5 1 0 0 1 1 0
29 0 15 76 50 46 31 7 0 0 0 0 0 0 0 0 0 0 0 0 0 0 9 1 0 0 0 0 0 0 0 0 0
17 1 3 0 0 0 9 0 0 0 0 0 0 0 0 0 0 0 0 0 0 18 4 0 0 0 0 0 0 0 0 0 0
69 0 0 0 0 0 0 0 0 0 0 0 0 0 0 0 0 0 0 0 0 5 0 0 0 0 0 0 0 0 0 0 0
0 0 0 0 0 0 0 0 0 0 0 0 0 0 0 0 0 0 0 0 0 0 0 0 0 0 0 0 0 0 0 0 0
0 0 0 0 0 0 1 0 0 0 0 0 0 0 0 0 0 0 0 0 0 0 0 0 0 0 0 0 0 0 0 0 0
0 0 0 0 0 0 0 0 0 0 0 0 0 0 0 0 0 0 0 0 0 0 0 0 0 0 0 0 0 0 0 0 0
54 63 4 7 0 0 0 0 0 0 0 0 0 0 0 0 0 0 0 0 0 0 0 0 0 0 0 0 0 0 0 0 0
175 142 84 34 0 0 0 0 0 0 0 0 0 0 0 0 0 0 0 0 0 0 0 0 0 0 0 0 0 0 0 0 0
270 213 92 0 0 0 0 0 0 0 0 0 0 0 0 0 0 0 0 0 0 0 0 0 0 0 0 0 0 0 0 0 0
344 198 103 40 9 2 0 0 0 0 0 0 0 0 0 0 0 0 0 0 0 0 0 0 0 0 0 0 0 0 0 0 0
393 286 184 152 60 63 0 0 0 0 0 0 0 0 0 0 0 0 0 0 0 0 0 0 0 0 0 0 0 0 0 0 0
473 369 222 202 139 126 40 0 0 0 0 0 0 0 0 0 0 0 0 0 0 0 0 0 0 0 0 0 0 0 0 0 0
531 443 268 250 236 206 131 23 0 0 0 0 0 0 0 0 0 0 0 0 0 0 0 0 0 0 0 0 0 0 0 0 0
640 494 274 339 291 174 126 66 37 0 0 0 0 0 0 0 0 0 0 0 0 0 0 0 0 0 0 0 0 0 0 0 0

GFSFLT1_con_mucape_054.txt.gz
CAPE
0 0 0 3 6 4 0 0 0 0 0 0 0 0 0 0 0 1 0 0 14 6 2 3 36 37 0 0 0 1 22 6 65
0 0 0 0 1 2 0 1 0 0 0 0 0 0 0 0 1 8 6 12 64 53 103 65 59 107 94 157 144 26 37 51 6
0 0 0 0 0 0 0 0 0 0 0 0 0 0 0 0 12 16 26 59 48 44 21 37 47 41 87 134 188 203 219 211 267
0 0 0 0 1 0 0 0 0 0 0 0 0 0 0 0 7 2 20 61 32 3 1 3 6 85 35 20 27 34 23 24 47
28 0 0 0 0 0 0 0 0 0 0 0 0 0 0 0 0 1 4 20 1 0 0 32 30 28 11 6 5 5 5 7 3
41 0 0 11 0 2 1 0 4 1 0 0 0 0 0 0 0 0 0 0 0 0 15 10 5 10 4 0 0 0 2 2 5
46 0 0 66 63 65 33 28 23 0 0 0 0 0 0 0 0 0 0 0 0 21 4 0 2 2 0 0 0 0 0 0 1
79 4 0 4 5 0 33 3 0 0 0 0 0 0 0 0 0 0 0 0 1 11 4 0 0 0 0 0 0 0 0 0 0
171 23 5 0 0 0 0 0 0 0 0 0 0 0 0 0 0 0 0 0 15 4 2 0 0 0 0 0 0 0 0 0 0
131 66 4 0 0 0 0 0 0 0 0 0 0 0 0 0 0 0 0 0 0 0 0 0 0 0 0 0 0 0 0 0 0
152 64 0 0 0 0 0 0 0 0 0 0 0 0 0 0 0 0 0 0 0 0 0 0 0 0 0 0 0 0 0 0 0
178 13 0 0 0 0 0 0 0 0 0 0 0 0 0 0 0 0 0 0 0 0 0 0 0 0 0 0 0 0 0 0 0
12 0 7 3 3 0 0 0 0 0 0 0 0 0 0 0 0 0 0 0 0 0 0 0 0 0 0 0 0 0 0 0 0
9 11 34 22 12 11 0 0 0 0 0 0 0 0 0 0 0 0 0 0 0 0 0 0 0 0 0 0 0 0 0 0 0
50 66 72 69 41 38 0 0 0 0 0 0 0 0 0 0 0 0 0 0 0 0 0 0 0 0 0 0 0 0 0 0 0
89 122 153 157 99 9 4 2 0 0 0 0 0 0 0 0 0 0 0 0 0 0 0 0 0 0 0 0 0 0 0 0 0
244 192 266 286 118 54 27 22 8 2 0 0 0 0 0 0 0 0 0 0 0 0 0 0 0 0 0 0 0 0 0 0 0
386 307 359 380 172 109 97 68 39 45 8 0 0 0 0 0 0 0 0 0 0 0 0 0 0 0 0 0 0 0 0 0 0
498 407 395 357 213 126 166 156 101 96 24 0 0 0 0 0 0 0 0 0 0 0 0 0 0 0 0 0 0 0 0 0 0
547 456 490 411 314 194 207 241 147 88 62 14 0 0 0 0 0 0 0 0 0 0 0 0 0 0 0 0 0 0 0 0 0

GFSFLT1_con_mucape_057.txt.gz
CAPE
0 0 9 14 41 25 5 3 5 1 0 0 0 0 0 0 0 0 0 0 12 5 9 102 115 68 68 88 0 0 38 1 34
0 0 1 9 8 4 0 0 0 0 0 0 0 0 0 0 0 1 0 32 86 91 66 65 65 73 94 171 152 118 75 83 38
0 0 0 1 5 1 0 0 0 0 0 0 0 0 0 0 1 2 11 46 37 18 38 11 16 92 66 77 57 33 71 133 162
0 0 0 1 3 2 0 0 0 0 0 0 0 0 0 0 0 2 11 91 16 4 0 23 72 34 7 2 5 4 3 6 20
0 0 6 3 1 0 0 0 0 0 0 0 0 0 0 0 0 0 2 10 6 0 9 23 17 8 2 6 5 5 7 10 6
0 0 0 8 0 0 0 0 0 0 0 0 0 0 0 0 0 0 0 0 0 9 12 1 7 5 0 0 0 0 1 3 3
45 0 5 53 58 73 27 28 27 0 0 0 0 0 0 0 0 0 0 0 9 18 2 1 1 1 0 0 0 0 0 0 0
118 9 0 18 33 24 81 24 0 0 0 0 0 0 0 0 0 0 0 0 29 6 0 0 0 0 0 0 0 0 0 0 0
167 56 5 3 0 0 0 0 0 0 0 0 0 0 0 0 0 0 0 0 9 2 0 0 0 0 0 0 0 0 0 0 0
191 132 32 3 0 0 0 0 0 0 0 0 0 0 0 0 0 0 0 0 0 0 0 0 0 0 0 0 0 0 0 0 0
143 189 71 25 0 0 0 0 0 0 0 0 0 0 0 0 0 0 0 0 0 0 0 0 0 0 0 0 0 0 0 0 0
61 159 115 12 0 0 0 0 0 0 0 0 0 0 0 0 0 0 0 0 0 0 0 0 0 0 0 0 0 0 0 0 0
14 124 154 1 3 5 6 0 0 0 0 0 0 0 0 0 0 0 0 0 0 0 0 0 0 0 0 0 0 0 0 0 0
18 116 141 0 14 12 10 4 0 0 0 0 0 0 0 0 0 0 0 0 0 0 0 0 0 0 0 0 0 0 0 0 0
122 42 11 10 30 14 16 9 0 0 0 0 0 0 0 0 0 0 0 0 0 0 0 0 0 0 0 0 0 0 0 0 0
267 167 41 41 78 56 37 23 0 0 0 0 0 0 0 0 0 0 0 0 0 0 0 0 0 0 0 0 0 0 0 0 0
337 257 115 96 125 137 126 43 6 4 0 0 0 0 0 0 0 0 0 0 0 0 0 0 0 0 0 0 0 0 0 0 0
482 303 236 147 200 235 230 89 56 28 20 12 0 0 0 0 0 0 0 0 0 0 0 0 0 0 0 0 0 0 0 0 0
607 406 334 213 238 279 265 129 93 90 71 26 13 4 2 0 0 0 0 0 0 0 0 0 0 0 0 0 0 0 0 0 0
677 456 447 288 316 297 329 140 89 155 181 109 97 23 6 4 14 3 0 0 0 0 0 0 0 0 0 0 0 0 0 0 0

GFSFLT1_con_mucape_060.txt.gz
CAPE
0 2 12 59 119 92 54 16 13 6 0 0 0 0 0 0 0 0 0 4 22 59 85 85 101 87 115 194 0 0 15 33 20
0 1 21 8 35 13 2 0 1 0 0 0 0 0 0 0 0 0 29 42 68 78 93 68 114 134 144 108 120 173 159 161 179
0 0 14 17 17 7 2 0 0 0 0 0 0 0 0 0 0 0 9 39 42 33 14 27 78 35 9 7 4 4 15 86 142
0 0 0 15 18 8 0 0 0 0 0 0 0 0 0 0 0 0 13 72 26 1 85 55 35 8 3 3 7 7 7 9 5
0 0 2 3 3 0 0 0 0 1 0 0 0 0 0 0 0 0 0 20 1 18 31 20 10 5 1 1 3 5 10 12 9
0 0 16 64 19 0 0 0 6 5 0 0 0 0 0 0 0 0 1 6 8 24 5 12 9 1 0 0 0 1 2 2 1
0 0 12 90 76 51 5 27 52 0 0 0 0 0 0 0 0 0 0 0 37 4 3 3 1 0 0 0 0 0 0 0 0
86 0 5 16 28 37 69 45 0 0 0 0 0 0 0 0 0 0 0 1 22 5 0 0 0 0 0 0 0 0 0 0 0
132 91 0 4 18 6 39 0 0 0 0 0 0 0 0 0 0 0 0 5 9 1 0 0 0 0 0 0 0 0 0 0 0
67 131 56 0 7 2 2 0 0 0 0 0 0 0 0 0 0 0 0 3 0 0 0 0 0 0 0 0 0 0 0 0 0
37 135 111 24 0 0 0 0 0 0 0 0 0 0 0 0 0 0 0 0 0 0 0 0 0 0 0 0 0 0 0 0 0
10 87 129 61 14 0 0 0 0 0 0 0 0 0 0 0 0 0 0 0 0 0 0 0 0 0 0 0 0 0 0 0 0
0 68 121 90 47 0 0 0 0 0 0 0 0 0 0 0 0 0 0 0 0 0 0 0 0 0 0 0 0 0 0 0 0
0 14 45 105 41 1 2 4 6 0 0 0 0 0 0 0 0 0 0 0 0 0 0 0 0 0 0 0 0 0 0 0 0
9 4 34 126 104 3 10 10 6 0 0 0 0 0 0 0 0 0 0 0 0 0 0 0 0 0 0 0 0 0 0 0 0
228 64 62 101 91 2 15 19 7 0 0 0 0 0 0 0 0 0 0 0 0 0 0 0 0 0 0 0 0 0 0 0 0
381 286 169 108 41 17 53 42 20 0 0 0 0 0 0 0 0 0 0 0 0 0 0 0 0 0 0 0 0 0 0 0 0
572 470 310 168 96 58 76 87 80 65 30 25 16 0 0 0 0 0 0 0 0 0 0 0 0 0 0 0 0 0 0 0 0
767 642 478 235 198 142 127 146 129 142 57 47 60 33 6 8 1 0 0 0 0 0 0 0 0 0 0 0 0 0 0 0 0
798 692 580 338 257 200 179 183 113 131 130 40 61 74 67 49 25 7 0 0 0 0 0 0 0 0 0 0 0 0 0 0 0

GFSFLT1_con_mucape_063.txt.gz
CAPE
3 1 62 159 143 168 143 104 7 0 0 0 0 0 0 0 0 0 0 23 50 94 103 104 97 129 196 13 14 1 0 31 5
5 1 57 112 103 70 40 2 1 0 0 0 0 0 0 0 0 7 33 46 44 67 48 103 92 49 15 31 28 173 193 219 220
0 9 9 19 40 41 26 6 4 0 0 0 0 0 0 0 0 0 32 77 23 1 28 77 16 10 5 7 0 3 15 13 27
0 2 41 28 7 13 11 2 0 0 0 0 0 0 0 0 0 2 21 84 0 62 68 43 11 9 6 3 4 4 3 1 0
0 0 35 51 24 1 0 0 0 3 0 0 0 0 0 0 0 2 1 11 2 30 20 6 7 7 2 2 3 4 2 3 3
0 0 5 42 26 0 0 0 22 3 0 0 0 0 0 0 0 0 12 0 38 8 12 7 8 1 0 0 0 1 0 0 0
0 0 27 118 63 40 11 53 0 0 0 0 0 0 0 0 0 0 0 23 29 9 5 4 0 0 0 0 0 0 0 0 0
22 4 37 82 34 61 108 95 0 0 0 0 0 0 0 0 0 0 0 46 19 0 0 0 0 0 0 0 0 0 0 0 0
122 36 25 55 68 82 111 7 0 0 0 0 0 0 0 0 0 0 0 24 11 0 0 0 0 0 0 0 0 0 0 0 0
139 115 38 29 40 20 38 0 0 0 0 0 0 0 0 0 0 0 0 9 0 0 0 0 0 0 0 0 0 0 0 0 0
88 112 90 19 3 0 0 0 0 0 0 0 0 0 0 0 0 0 1 0 0 0 0 0 0 0 0 0 0 0 0 0 0
27 56 77 71 0 0 0 0 0 0 0 0 0 0 0 0 0 0 0 0 0 0 0 0 0 0 0 0 0 0 0 0 0
31 30 66 90 37 1 0 0 0 0 0 0 0 0 0 0 0 0 0 0 0 0 0 0 0 0 0 0 0 0 0 0 0
33 18 46 78 69 31 0 0 0 0 0 0 0 0 0 0 0 0 0 0 0 0 0 0 0 0 0 0 0 0 0 0 0
160 50 7 42 107 73 0 0 0 0 0 0 0 0 0 0 0 0 0 0 0 0 0 0 0 0 0 0 0 0 0 0 0
274 166 3 0 26 104 28 0 0 9 0 0 0 0 0 0 0 0 0 0 0 0 0 0 0 0 0 0 0 0 0 0 0
462 361 175 29 19 89 84 0 16 0 0 0 0 0 0 0 0 0 0 0 0 0 0 0 0 0 0 0 0 0 0 0 0
638 532 364 206 77 75 86 18 20 35 17 16 8 1 0 0 0 0 0 0 0 0 0 0 0 0 0 0 0 0 0 0 0
780 697 532 309 161 154 115 59 42 58 64 45 44 20 10 9 0 0 0 0 7 0 0 0 0 0 0 0 0 0 0 0 0
742 789 715 502 407 190 187 134 63 93 107 102 93 69 37 22 14 7 9 4 2 0 0 0 0 0 0 0 0 0 0 0 0

GFSFLT1_con_mucape_066.txt.gz
CAPE
0 0 79 160 117 61 144 39 3 0 0 0 0 0 0 0 9 27 10 70 106 98 151 112 119 185 144 148 101 1 11 39 0
0 0 103 111 174 156 85 23 0 0 0 0 0 0 0 5 28 46 88 48 36 28 102 50 30 8 6 16 119 175 164 277 247
0 4 104 117 106 76 40 12 0 0 0 0 0 0 0 5 12 29 44 45 1 33 61 11 8 6 7 2 3 2 0 12 11
0 9 12 39 73 50 21 19 0 0 0 0 0 0 0 17 16 25 42 27 61 119 52 18 9 3 7 3 3 1 1 1 0
0 41 100 44 37 12 0 0 0 0 0 0 0 0 0 17 19 26 39 4 52 37 12 2 5 6 4 3 3 2 1 0 0
0 0 24 104 44 0 0 2 20 0 0 0 0 0 7 6 7 14 18 7 26 11 4 2 3 1 0 1 0 0 0 0 0
0 0 24 82 98 67 12 89 0 0 0 0 0 4 1 1 0 2 0 39 11 1 2 0 0 0 0 0 0 1 0 0 0
0 0 9 18 0 1 30 70 0 1 0 0 0 0 0 0 0 0 0 36 6 0 0 0 0 0 0 0 0 0 0 0 0
23 0 0 6 0 3 32 44 15 4 0 0 0 0 0 0 0 0 0 40 1 0 0 0 0 0 0 0 0 0 0 0 0
133 90 7 0 0 12 44 37 2 4 0 0 0 0 0 0 0 0 0 31 0 0 0 0 0 0 0 0 0 0 0 0 0
172 191 133 20 2 10 39 29 0 0 0 0 0 0 0 0 0 0 4 4 0 0 0 0 0 0 0 0 0 0 0 0 0
150 173 189 159 9 8 21 28 0 0 0 0 0 0 0 0 0 0 0 0 0 0 0 0 0 0 0 0 0 0 0 0 0
132 121 126 161 125 21 2 1 0 0 0 0 0 0 0 0 0 0 0 0 0 0 0 0 0 0 0 0 0 0 0 0 0
103 83 93 131 146 81 12 0 0 0 0 0 0 0 0 0 0 0 0 0 0 0 0 0 0 0 0 0 0 0 0 0 0
110 83 62 74 165 106 65 0 0 0 0 0 0 0 0 0 0 0 0 0 0 0 0 0 0 0 0 0 0 0 0 0 0
235 167 134 42 112 174 110 15 0 0 0 0 0 0 0 0 0 0 0 0 0 0 0 0 0 0 0 0 0 0 0 0 0
318 271 266 126 66 152 147 43 16 0 0 0 0 0 0 0 0 0 0 0 0 0 0 0 0 0 0 0 0 0 0 0 0
428 452 435 286 143 110 121 29 63 6 4 8 0 0 0 0 0 0 0 0 0 0 0 0 0 0 0 0 0 0 0 0 0
606 467 497 451 331 227 90 49 71 35 16 12 21 10 9 14 0 0 0 0 0 0 0 0 0 0 0 0 0 0 0 0 0
961 571 449 547 526 435 187 65 66 89 49 42 49 34 25 29 36 6 0 0 0 5 5 0 0 0 0 0 0 0 0 0 0

GFSFLT1_con_mucape_069.txt.gz
CAPE
0 0 25 104 175 123 114 3 0 0 0 0 0 0 0 0 29 38 52 74 113 138 161 91 117 165 112 281 57 169 229 64 64
0 15 128 124 132 155 33 2 0 0 0 0 0 0 0 5 30 45 41 16 13 88 66 14 11 8 11 68 77 123 280 302 305
0 22 155 149 129 74 31 4 0 0 0 0 0 0 0 12 18 21 13 26 24 64 14 6 6 5 8 9 6 6 6 6 10
0 4 105 146 109 44 24 0 0 0 0 0 0 0 0 20 11 36 11 102 105 49 9 5 2 4 6 6 4 2 3 4 4
0 6 30 103 70 18 2 0 0 0 0 0 0 0 0 20 11 29 1 21 50 12 1 0 3 5 5 3 0 0 0 0 0
0 0 54 100 57 1 0 0 0 0 0 0 0 0 8 15 14 21 0 27 17 3 0 0 1 1 0 0 0 0 0 0 0
0 0 2 90 77 38 0 53 33 0 0 0 0 0 7 6 4 3 0 18 9 2 0 0 0 0 0 0 1 0 0 0 0
0 0 0 12 0 1 5 53 0 0 1 0 0 2 8 2 0 0 0 14 9 0 0 0 0 0 0 0 0 0 0 0 0
0 0 0 0 0 0 0 7 0 1 0 0 0 0 0 0 0 0 0 29 1 0 0 0 0 0 0 0 0 0 0 0 0
5 0 0 0 0 0 3 30 24 5 0 0 0 0 0 0 0 0 0 21 0 0 0 0 0 0 0 0 0 0 0 0 0
59 87 23 0 0 0 11 18 8 1 1 0 0 0 0 0 0 0 0 6 0 0 0 0 0 0 0 0 0 0 0 0 0
51 155 204 133 9 0 1 14 0 0 0 0 0 0 0 0 0 0 0 0 5 0 0 0 0 0 0 0 0 0 0 0 0
134 170 179 174 149 11 0 7 1 0 0 0 0 0 0 0 0 0 0 0 0 0 0 0 0 0 0 0 0 0 0 0 0
141 170 151 94 187 83 31 15 0 0 0 0 0 0 0 0 0 0 0 0 0 0 0 0 0 0 0 0 0 0 0 0 0
190 202 162 143 190 129 147 55 1 0 0 0 0 0 0 0 0 0 0 0 0 0 0 0 0 0 0 0 0 0 0 0 0
329 337 221 209 189 202 101 131 10 0 0 0 0 0 0 0 0 0 0 0 0 0 0 0 0 0 0 0 0 0 0 0 0
468 478 430 365 292 264 128 202 54 0 0 0 0 0 0 0 0 0 0 0 0 0 0 0 0 0 0 0 0 0 0 0 0
895 562 551 559 435 340 378 158 112 4 0 0 0 0 0 0 0 0 0 0 0 0 0 0 0 0 0 0 0 0 0 0 0
696 878 624 573 570 483 326 351 193 44 3 19 9 2 1 6 0 1 12 10 0 0 0 0 0 0 0 0 0 0 0 0 0
469 478 673 617 552 544 375 292 271 106 63 50 66 35 22 26 35 18 24 16 8 5 0 0 0 0 8 11 0 0 0 0 0

GFSFLT1_con_mucape_072.txt.gz
CAPE
0 0 33 79 275 149 16 2 0 0 0 0 0 0 0 8 38 23 35 21 148 209 89 21 61 73 279 265 279 345 162 239 338
0 25 96 217 243 113 5 1 0 1 0 0 0 0 1 17 32 13 1 1 97 62 6 4 5 7 20 22 44 77 176 208 196
3 57 272 221 180 36 3 5 0 1 0 0 0 0 0 11 21 14 10 89 66 24 9 5 3 5 5 7 6 4 2 9 19
5 148 287 146 124 84 11 0 0 0 0 0 0 0 0 5 16 7 27 193 81 16 9 3 3 9 8 4 2 2 3 3 3
0 14 179 188 133 100 18 0 0 0 0 0 0 0 0 0 0 3 15 101 26 6 2 1 2 3 1 0 0 0 0 0 0
0 0 53 141 103 37 0 0 1 0 0 0 0 0 0 2 6 1 155 2 13 3 1 0 1 1 0 1 0 1 0 0 0
0 0 3 106 88 42 35 46 52 0 0 0 0 0 0 1 0 0 123 4 8 4 0 0 0 0 0 2 0 0 0 0 0
0 0 0 0 4 0 22 65 3 0 0 0 0 0 1 0 0 0 79 8 5 0 0 0 0 0 0 1 1 0 0 0 0
0 0 0 0 0 1 0 27 0 0 0 0 0 0 0 0 0 0 9 6 4 0 0 0 0 0 0 0 0 0 0 0 0
0 0 0 0 0 0 0 0 0 0 0 0 0 0 0 0 0 0 0 0 0 0 0 0 0 0 0 0 0 0 0 0 0
5 0 0 0 0 0 0 0 0 0 0 0 0 0 0 0 0 0 0 0 0 0 0 0 0 0 0 0 0 0 0 0 0
7 13 6 0 0 0 0 0 0 0 0 0 0 0 0 0 0 0 0 0 0 0 0 0 0 0 0 0 0 0 0 0 0
0 8 56 67 43 0 0 0 0 0 0 0 0 0 0 0 0 0 0 0 0 0 0 0 0 0 0 0 0 0 0 0 0
6 44 59 107 115 61 4 0 0 0 0 0 0 0 0 0 0 0 0 0 0 0 0 0 0 0 0 0 0 0 0 0 0
39 83 100 69 84 119 63 0 0 0 0 0 0 0 0 0 0 0 0 0 0 0 0 0 0 0 0 0 0 0 0 0 0
146 119 110 94 71 108 97 58 17 0 0 0 0 0 0 0 0 0 0 0 0 0 0 0 0 0 0 0 0 0 0 0 0
244 236 195 160 123 108 150 119 81 55 8 0 0 0 0 0 0 3 0 0 0 0 0 0 0 0 0 0 0 0 0 0 0
543 318 279 265 218 180 155 198 143 75 64 6 1 0 0 0 0 17 22 8 0 0 0 0 0 0 0 0 0 0 0 0 0
512 790 595 374 371 342 250 244 228 132 88 85 42 22 3 2 0 0 4 29 14 8 19 4 0 0 0 0 0 1 3 1 0
438 436 471 664 477 459 465 395 336 256 188 152 167 61 37 48 44 24 17 9 30 21 13 31 33 6 0 0 0 1 11 11 3

GFSFLT1_con_mucape_075.txt.gz
CAPE
0 0 0 245 226 74 7 3 0 0 0 0 0 1 14 6 6 13 37 50 136 45 7 8 66 158 156 234 279 216 280 304 400
0 0 253 357 199 20 9 5 0 0 0 0 0 0 14 13 4 0 11 23 19 6 6 5 6 7 23 50 88 151 175 199 262
16 17 203 440 86 0 11 4 0 0 0 0 0 0 3 6 3 2 11 125 12 6 8 1 5 3 8 6 5 4 8 7 9
65 154 353 247 102 95 2 0 0 0 0 0 0 0 0 0 1 8 13 145 11 2 6 5 6 8 5 3 3 3 3 6 8
57 157 220 266 218 97 66 0 0 0 0 0 0 0 0 0 0 3 50 54 7 4 1 3 3 2 0 1 1 1 1 2 2
0 22 118 157 174 102 33 20 40 40 0 0 0 0 0 0 0 5 169 25 6 3 0 1 1 0 0 0 1 1 0 0 0
0 0 68 147 102 84 71 83 81 7 0 0 0 0 0 0 0 14 127 1 4 2 0 0 0 0 1 1 0 0 0 0 1
0 0 6 11 2 2 43 74 18 0 0 0 0 0 0 0 0 23 105 0 1 1 0 0 0 0 1 0 0 0 0 0 0
0 0 2 3 0 3 0 16 0 0 0 0 0 0 0 0 0 15 45 31 3 0 0 0 0 0 0 0 0 0 0 0 0
0 0 0 4 0 0 0 0 0 0 0 0 0 0 0 0 0 0 2 27 0 0 0 0 0 0 0 0 0 0 0 0 0
7 0 0 0 5 5 0 0 0 0 0 0 0 0 0 0 0 0 0 0 0 0 0 0 0 0 0 0 0 0 0 0 0
11 0 0 0 2 1 0 0 0 0 0 0 0 0 0 0 0 0 0 0 0 0 0 0 0 0 0 0 0 0 0 0 0
0 0 0 0 1 2 0 0 0 0 0 0 0 0 0 0 0 0 0 0 0 0 0 0 0 0 0 0 0 0 0 0 0
0 0 0 23 42 55 12 0 0 1 4 0 0 0 0 0 0 0 0 0 0 0 0 0 0 0 0 0 0 0 0 0 0
21 8 10 38 73 99 89 44 4 12 15 16 0 0 0 0 0 0 0 0 0 0 0 0 0 0 0 0 0 0 0 0 0
146 94 51 59 68 93 108 87 71 48 32 0 5 0 0 0 0 0 0 0 0 0 0 0 0 0 0 0 0 0 0 0 0
263 220 157 103 74 80 97 118 115 112 103 47 13 0 0 0 0 0 0 0 0 0 0 3 9 2 0 0 0 0 0 0 0
263 208 220 230 200 159 156 150 142 142 117 53 30 16 2 4 9 2 0 1 0 6 18 12 21 31 15 3 0 0 0 0 0
624 541 363 207 275 261 244 202 194 161 135 90 53 32 29 47 15 28 26 40 30 15 23 26 21 27 38 14 0 0 0 0 0
259 237 260 304 454 362 319 335 360 192 188 154 161 145 85 62 59 49 43 48 58 50 45 53 35 32 65 29 17 1 5 0 0

GFSFLT1_con_mucape_078.txt.gz
CAPE
0 0 197 305 71 4 0 0 0 0 0 0 0 7 10 0 8 32 79 30 105 11 5 7 112 163 240 205 228 226 309 258 67
0 3 124 262 111 22 0 0 0 0 0 0 0 0 3 0 1 19 14 0 6 4 5 7 7 22 80 97 138 139 208 238 249
0 109 193 276 40 16 0 0 0 0 0 0 0 0 0 0 0 0 0 56 6 6 3 4 4 5 5 4 4 10 12 11 17
0 110 488 326 123 134 76 28 0 0 0 0 0 0 0 0 0 0 0 94 5 3 2 3 4 4 4 5 4 4 5 7 3
92 179 391 253 184 122 105 64 31 0 0 0 0 0 0 0 0 0 24 28 5 3 1 2 2 1 1 0 1 2 3 3 4
70 98 171 235 216 112 59 58 73 47 2 0 0 0 0 0 0 18 185 25 2 2 0 1 0 0 0 0 0 1 1 1 1
3 71 96 173 167 126 86 66 70 4 0 0 0 0 0 0 0 44 180 25 1 1 0 0 0 0 0 0 1 1 0 1 1
0 3 39 64 38 16 27 57 2 0 0 0 0 0 0 0 0 49 168 28 1 0 0 0 0 0 0 0 0 0 0 1 1
0 0 16 34 16 11 14 19 4 0 0 0 0 0 0 0 0 25 96 89 0 0 0 0 0 1 1 0 0 0 0 0 0
0 0 3 6 7 8 14 11 5 0 0 0 0 0 0 0 0 10 36 75 52 0 0 0 0 1 1 0 0 0 0 0 0
0 0 0 2 6 6 6 1 0 0 0 0 0 0 0 0 0 0 0 37 58 0 0 0 1 1 2 0 0 0 0 0 0
0 0 0 0 0 0 0 2 1 7 5 3 0 0 0 0 0 0 0 0 0 0 0 0 0 0 0 2 0 0 0 0 0
15 2 0 0 0 0 0 0 0 0 2 5 6 0 0 0 0 0 0 0 0 0 0 0 0 0 0 5 0 0 0 0 0
0 0 0 0 0 5 17 16 0 0 0 0 0 0 0 0 0 0 0 0 0 0 0 0 0 0 0 0 1 0 0 0 0
0 0 0 0 0 7 14 29 27 0 0 0 0 0 0 0 0 0 0 0 0 0 0 0 0 0 0 0 0 0 0 0 0
36 24 0 0 0 0 24 53 83 61 40 22 13 0 0 0 0 0 0 0 0 0 1 4 4 0 0 0 0 0 0 0 0
214 199 159 107 58 35 52 89 104 123 115 90 63 19 0 0 23 6 2 1 0 2 7 4 12 4 2 6 4 0 0 0 0
277 236 244 197 165 173 184 166 142 134 145 153 95 24 0 3 15 28 24 27 29 25 22 21 16 34 28 14 14 22 0 0 0
607 524 276 212 219 185 217 224 227 224 162 143 93 81 58 37 9 37 58 45 42 40 43 48 14 11 7 7 8 29 10 2 0
141 269 327 306 261 257 208 189 297 237 201 190 112 129 90 71 159 92 63 76 73 51 30 58 67 35 16 15 2 11 5 16 3

GFSFLT1_con_mucape_081.txt.gz
CAPE
0 8 454 121 24 0 0 0 0 0 0 0 41 50 0 0 0 8 28 3 21 3 4 20 117 266 154 205 271 328 198 11 110
0 51 307 104 0 0 0 0 0 0 0 0 0 6 0 0 16 0 0 0 2 8 7 4 2 9 128 164 177 151 222 218 228
0 29 330 93 53 0 0 0 0 0 0 0 0 7 0 0 0 0 0 40 5 2 3 4 4 3 4 5 8 6 18 39 61
55 106 319 156 134 81 59 0 0 0 0 0 0 0 0 0 0 0 0 28 3 2 3 4 4 4 5 4 3 3 5 2 2
84 168 441 277 183 187 132 48 1 0 0 0 0 0 0 0 0 0 1 17 1 2 1 2 1 1 1 2 1 2 1 3 3
22 100 195 198 197 133 66 69 51 0 0 0 0 0 0 0 0 0 141 7 2 1 0 0 0 0 0 0 0 1 2 1 4
40 88 140 203 150 107 77 51 48 0 0 0 0 0 0 0 0 27 186 41 1 0 0 0 0 0 0 0 0 1 1 2 4
36 63 79 77 65 45 46 41 18 0 0 0 0 0 0 0 0 35 201 61 22 0 0 0 0 0 0 0 0 0 0 1 1
5 13 34 48 47 23 19 19 17 0 0 0 0 0 0 0 0 19 101 176 30 0 0 0 0 0 0 0 0 0 0 0 1
4 0 6 17 29 9 4 7 8 1 0 0 0 0 0 0 0 3 60 95 124 8 0 0 0 1 2 1 0 0 1 0 0
0 0 0 2 2 0 0 0 0 0 0 0 2 0 0 0 0 0 17 42 143 39 0 0 0 0 4 3 0 0 2 0 0
0 0 0 0 0 0 0 0 0 0 0 0 0 0 0 0 0 0 0 14 40 76 0 0 1 2 0 0 0 0 0 0 0
30 10 0 0 0 0 0 0 0 0 0 0 0 0 0 0 0 0 0 0 0 0 49 18 0 2 0 0 0 0 0 0 0
55 36 0 0 0 0 0 0 0 0 0 0 0 0 0 0 0 0 0 0 0 0 0 0 3 1 0 0 0 0 0 0 0
74 58 0 0 0 0 0 0 0 0 13 0 0 0 0 0 0 0 0 0 0 0 0 0 0 0 2 0 0 0 0 0 0
93 64 0 0 0 0 0 0 0 5 34 33 23 12 0 10 47 26 12 20 16 1 0 0 0 2 4 1 0 0 0 0 0
252 211 97 66 52 20 24 4 0 0 41 60 130 27 1 0 22 22 21 28 28 24 21 23 28 19 2 4 6 6 4 0 0
232 196 214 192 162 153 147 115 96 62 88 127 96 92 8 1 0 5 12 24 32 24 14 17 26 26 24 33 33 15 6 10 0
494 418 365 318 254 217 232 164 125 164 162 212 169 132 85 57 23 6 5 7 10 16 17 10 16 41 64 58 21 2 2 0 0
399 462 501 397 312 257 216 155 223 77 118 142 98 89 71 73 64 50 38 31 28 13 50 43 39 58 43 13 16 11 10 5 2

GFSFLT1_con_mucape_084.txt.gz
CAPE
144 363 249 12 0 0 0 0 0 0 0 59 93 39 29 0 20 16 7 0 4 3 4 3 202 206 256 229 262 168 0 78 224
42 383 197 0 0 0 0 0 0 0 0 8 68 7 0 19 0 0 0 0 3 7 4 2 4 8 105 158 202 242 247 232 185
0 229 135 38 0 0 0 0 0 0 0 0 27 0 0 0 0 0 0 50 4 5 3 4 5 2 4 14 10 4 5 11 36
1 194 288 87 62 47 0 0 0 0 0 0 0 0 0 0 0 0 0 65 3 3 3 2 2 3 3 4 5 7 5 3 3
153 144 408 289 232 141 68 22 0 0 0 0 0 0 0 0 0 0 0 0 1 2 1 0 0 0 0 0 2 3 3 5 6
65 108 238 189 220 142 77 57 37 0 0 0 0 0 0 0 0 0 68 29 0 0 0 0 0 0 0 0 1 1 1 4 4
14 34 162 171 136 97 69 44 38 0 0 0 0 0 0 0 0 0 130 50 28 0 0 0 0 0 0 0 0 0 1 3 6
51 92 106 102 67 56 53 45 18 0 0 0 0 0 0 0 0 0 116 105 62 0 0 0 0 0 0 0 0 0 1 3 4
46 48 55 60 53 38 28 16 14 0 0 0 0 0 0 0 0 0 44 201 73 28 0 0 0 0 0 0 0 0 1 1 1
13 32 33 34 37 23 5 1 2 0 0 0 0 0 0 0 0 0 7 77 186 63 1 0 0 0 1 0 0 0 2 1 2
0 0 0 0 5 9 0 0 0 0 0 0 0 0 0 0 0 0 0 33 129 144 40 1 0 0 3 0 0 0 3 1 1
0 0 0 0 0 0 0 0 0 0 0 0 0 0 0 0 0 0 0 0 39 145 82 15 1 0 2 5 0 0 0 0 0
41 2 0 0 0 0 0 0 0 0 0 0 0 0 0 0 0 0 0 0 0 16 170 175 13 0 2 5 0 0 0 0 0
90 41 25 0 0 0 0 0 0 0 0 0 0 0 0 0 0 1 0 0 0 0 2 16 43 65 0 6 0 0 0 0 0
131 114 59 31 0 0 0 0 0 0 0 0 9 27 16 12 16 33 32 20 10 2 0 0 0 0 34 5 1 1 0 0 0
173 156 121 62 31 0 0 0 0 0 0 0 14 20 23 27 21 19 11 8 6 7 11 3 0 4 4 62 3 0 8 5 21
204 181 164 123 59 45 48 32 14 21 32 21 30 5 1 0 0 0 0 0 2 6 0 0 0 2 11 40 44 74 46 16 1
187 153 170 185 157 165 151 140 109 80 70 64 52 43 10 9 9 9 2 0 0 0 0 4 2 8 3 2 25 33 39 9 6
435 411 428 388 302 237 211 174 144 123 140 21 80 47 48 61 38 11 4 9 11 37 24 17 17 19 31 33 26 27 18 3 5
532 517 428 306 241 233 195 206 194 136 92 76 83 21 34 67 37 14 12 7 28 17 16 3 10 5 10 20 28 36 11 2 2

GFSFLT1_con_mucape_087.txt.gz
CAPE
260 0 0 0 0 0 3 4 0 0 63 76 42 65 28 21 11 7 5 5 6 7 0 17 245 261 251 276 240 66 191 217 211
511 157 58 0 0 0 0 1 0 0 35 81 54 15 0 22 3 0 1 5 4 4 1 0 0 0 102 148 168 210 237 219 182
341 170 98 19 0 0 0 0 0 0 0 51 0 0 0 0 0 0 2 19 2 3 2 2 3 2 5 4 2 0 2 0 0
98 472 213 68 65 9 0 0 0 0 0 30 0 0 0 0 0 0 1 42 2 2 1 1 2 4 4 5 9 6 4 3 4
96 234 266 284 197 123 86 0 0 0 0 0 0 0 0 0 28 1 3 4 1 0 0 0 0 0 1 1 3 5 6 8 6
65 96 230 235 234 130 79 36 8 0 0 0 0 0 0 0 16 5 35 5 0 0 0 0 0 0 0 0 1 1 3 7 6
46 55 159 159 145 114 75 51 11 0 0 0 0 0 0 0 0 18 43 26 8 0 0 0 0 0 0 0 1 1 3 7 7
42 82 161 152 54 59 46 35 16 0 0 0 0 0 0 0 0 1 30 115 51 0 0 0 0 0 0 0 0 0 1 2 3
53 92 111 117 81 54 40 26 16 2 0 0 0 0 0 0 0 0 4 144 95 32 0 0 0 0 0 0 0 0 0 0 0
22 41 45 55 45 33 24 12 6 2 0 0 0 0 0 0 0 0 0 13 150 75 17 0 0 0 0 0 0 0 0 0 3
0 13 18 15 16 17 6 0 0 0 0 0 0 0 0 0 0 0 0 0 66 141 72 23 0 0 0 0 0 0 0 0 1
22 0 0 0 0 0 0 0 0 0 0 0 0 0 0 0 0 0 0 0 0 61 137 81 24 3 1 3 0 0 0 0 0
27 13 0 0 0 0 0 0 0 0 0 0 0 0 0 0 0 0 0 0 0 0 98 222 57 26 13 13 6 0 0 0 0
52 55 7 0 0 0 0 0 0 0 0 0 0 0 0 0 0 0 0 10 5 0 0 4 77 120 34 33 34 20 0 0 0
76 70 75 31 11 0 0 0 0 0 0 0 0 0 0 20 38 52 35 19 2 0 0 0 0 1 39 40 29 41 0 0 19
154 121 108 92 55 33 6 0 0 0 0 0 0 0 0 18 22 19 2 0 0 0 0 0 0 0 1 43 51 54 16 16 8
145 178 146 121 102 62 45 26 31 13 37 17 18 0 0 0 0 0 0 0 0 0 0 0 0 0 4 10 41 144 58 57 18
138 145 122 136 125 126 130 122 108 89 74 53 45 18 7 9 6 0 2 7 9 8 7 20 20 11 14 12 13 24 25 78 69
538 384 180 171 202 258 187 160 107 101 83 65 5 5 27 114 16 7 19 12 10 2 10 6 3 5 7 7 4 2 28 9 41
528 498 455 363 300 252 194 151 117 90 115 130 50 62 9 56 14 14 8 10 5 11 6 0 0 5 7 4 19 0 14 14 83

GFSFLT1_con_mucape_090.txt.gz
CAPE
78 0 0 0 12 7 7 4 15 78 59 45 72 56 33 16 42 25 13 3 3 1 0 4 10 193 236 240 203 209 227 220 129
127 0 0 0 0 3 2 1 2 77 82 88 88 36 0 19 9 12 6 5 3 2 0 0 0 0 4 12 22 51 69 13 6
169 32 0 0 0 1 1 0 0 61 77 42 13 0 0 1 2 3 1 3 2 0 0 0 0 1 0 0 1 0 0 1 1
471 184 89 7 0 0 0 0 0 16 76 0 0 0 0 1 3 2 6 2 2 0 0 0 1 0 1 2 2 1 3 5 4
277 253 245 212 82 35 0 1 9 0 0 0 0 0 0 2 5 8 2 2 0 0 0 0 0 1 1 1 1 2 4 4 4
40 304 139 282 216 99 39 24 20 0 0 0 0 0 9 13 21 27 14 7 0 0 0 0 0 0 0 0 0 1 4 5 8
0 126 128 205 181 170 110 41 1 0 0 2 0 11 9 7 18 48 30 26 5 0 0 0 0 0 0 0 0 0 4 6 4
7 90 319 166 75 126 76 52 41 6 0 0 0 0 1 1 9 13 12 114 39 0 0 0 0 0 0 0 0 0 2 5 4
6 43 120 139 113 124 125 90 61 25 0 0 0 0 0 0 0 7 0 50 132 49 0 0 0 0 0 0 0 0 0 2 3
51 82 86 115 111 89 73 44 34 34 16 0 0 0 0 0 0 0 0 0 63 114 41 0 0 0 0 0 0 0 0 0 0
23 50 58 57 45 40 34 11 0 0 0 0 0 0 0 0 0 0 0 0 0 98 92 56 7 0 1 2 0 0 0 0 0
17 0 6 15 4 0 10 1 0 0 0 0 0 0 0 0 0 0 0 0 0 1 134 126 58 16 4 13 0 0 0 0 0
38 24 0 0 0 0 0 0 0 0 0 0 0 0 0 0 0 0 0 0 0 0 50 177 173 49 37 32 30 0 0 0 0
84 59 23 0 0 0 3 0 0 0 0 0 0 0 0 0 0 0 5 0 0 0 0 2 66 137 69 49 47 48 0 0 0
141 124 103 48 21 23 0 0 0 0 0 0 0 0 0 7 30 42 27 11 0 0 0 0 0 0 72 80 51 63 81 1 2
335 247 167 120 73 51 22 0 0 0 0 0 0 0 9 14 47 44 36 0 0 0 0 0 0 0 2 61 89 85 98 95 8
417 338 293 184 85 66 41 29 21 13 8 0 9 43 103 67 28 3 0 0 0 0 1 1 2 1 2 5 33 82 102 104 91
477 282 265 214 148 107 85 76 59 57 70 81 54 26 8 1 1 0 2 0 1 10 6 4 2 2 4 13 15 13 9 86 129
390 381 323 205 138 110 181 105 79 68 63 52 89 82 42 13 26 11 2 0 5 8 11 6 1 0 0 0 0 4 7 23 120
529 527 512 433 330 264 222 182 129 90 79 158 51 108 9 14 19 21 22 3 0 0 1 8 6 0 0 0 0 4 5 9 65

GFSFLT1_con_mucape_093.txt.gz
CAPE
0 0 6 20 27 15 10 76 86 65 59 92 80 69 79 96 6 6 0 0 2 1 2 0 2 67 72 121 162 169 100 15 8
0 0 2 14 15 9 7 59 90 77 80 90 61 0 8 5 2 0 0 1 0 0 1 1 2 3 2 2 3 4 9 10 3
0 0 0 2 8 8 5 3 74 59 47 40 9 0 0 0 1 0 0 5 0 0 0 0 0 0 0 0 1 1 2 2 3
60 96 14 0 1 0 0 0 13 34 0 0 0 0 0 0 1 5 0 2 1 0 0 0 0 0 0 0 1 3 3 3 3
405 182 158 63 25 17 6 0 0 14 11 0 0 0 0 2 5 2 0 1 0 0 0 0 0 0 0 0 0 3 4 4 4
188 116 141 169 79 26 0 3 0 0 0 0 0 0 3 3 6 27 26 8 0 0 0 0 0 0 0 0 1 2 4 5 4
312 163 95 184 146 98 32 12 0 0 0 0 0 4 0 0 2 20 42 11 0 0 0 0 0 0 0 0 1 2 4 2 5
109 318 165 135 69 94 58 19 14 0 0 0 0 0 0 0 0 1 22 54 19 0 0 0 0 0 0 0 0 0 3 2 3
0 81 298 218 112 119 116 82 48 25 0 0 0 0 0 0 0 0 0 7 80 39 0 0 0 0 0 0 0 0 0 0 0
2 29 89 107 109 130 103 47 44 37 19 0 0 0 0 0 0 0 0 0 4 86 40 0 0 0 0 0 0 0 0 0 0
35 66 70 72 69 52 48 26 3 2 0 0 0 0 0 0 0 0 0 0 0 27 103 75 5 0 1 0 0 0 0 0 0
22 22 41 31 22 1 13 8 0 0 0 0 0 0 0 0 0 0 0 0 0 0 101 121 114 25 5 9 0 0 0 0 0
72 64 9 0 5 9 9 0 0 0 0 0 0 0 0 0 0 0 0 0 0 0 31 146 180 144 53 28 25 1 0 0 0
129 102 55 1 0 13 26 3 0 0 0 0 0 0 6 0 1 0 6 25 0 4 3 11 97 153 147 111 76 64 7 0 0
204 167 140 67 44 27 34 35 29 0 0 0 0 0 37 60 63 39 28 29 19 0 21 16 0 2 105 141 89 84 105 26 0
376 336 294 247 138 96 87 65 48 58 18 20 26 32 54 53 82 103 80 60 0 0 0 0 13 17 26 111 126 117 110 100 73
642 610 558 455 424 281 231 140 91 55 68 52 139 73 203 88 35 93 16 0 0 0 0 9 12 16 9 7 28 35 87 127 129
822 752 738 705 554 396 369 242 123 128 117 48 86 42 48 43 6 1 0 0 0 0 4 10 9 12 5 6 4 10 15 20 113
325 336 433 511 514 458 410 341 252 192 183 90 119 84 100 84 22 7 0 0 0 0 2 2 6 7 1 2 0 0 0 2 36
271 202 199 213 430 374 289 345 319 209 198 239 192 39 41 61 9 16 24 0 0 0 0 0 0 0 1 2 0 0 0 3 15

GFSFLT1_con_mucape_096.txt.gz
CAPE
6 10 19 24 19 20 72 86 60 75 95 84 76 11 71 3 0 0 0 0 0 4 7 8 8 9 16 71 76 70 62 11 8
2 5 85 37 22 27 104 77 85 92 89 57 0 7 8 0 0 0 0 0 0 0 0 0 6 9 6 7 10 11 8 8 2
0 1 28 19 10 6 52 66 61 59 44 0 0 0 0 0 0 0 0 0 0 0 0 0 0 0 0 1 2 3 4 3 5
0 0 65 5 2 1 18 74 41 0 0 0 0 0 0 0 0 0 0 1 0 0 0 0 0 0 0 1 4 3 4 4 4
193 15 45 93 71 63 52 17 54 16 0 0 0 0 0 0 0 0 0 0 0 0 0 0 0 0 0 1 3 3 5 4 3
26 8 28 59 67 60 34 4 0 0 0 0 0 0 0 0 0 0 24 0 0 0 0 0 0 0 0 1 1 4 3 2 5
119 44 59 97 70 49 39 20 1 0 0 0 0 0 0 0 0 0 25 8 0 0 0 0 0 0 0 0 1 1 1 3 3
436 55 76 63 60 57 26 3 0 0 0 0 0 0 0 0 0 0 47 0 0 0 0 0 0 0 0 0 0 0 0 0 0
237 71 88 75 70 100 57 50 38 16 0 0 0 0 0 0 0 0 0 46 42 1 0 0 0 0 0 0 0 0 0 0 0
0 142 103 82 84 92 66 79 46 32 16 0 0 0 0 0 0 0 0 0 21 53 19 0 0 0 0 0 0 0 0 0 0
0 19 127 85 107 104 87 41 22 17 2 0 0 0 0 0 0 0 0 0 0 27 60 75 2 0 0 0 0 0 0 0 0
22 42 51 46 56 37 25 13 0 0 0 0 0 0 0 0 0 0 0 0 0 0 43 107 147 25 3 6 0 0 0 0 0
17 24 26 25 19 1 0 0 0 0 0 0 0 0 0 0 0 0 0 0 0 0 15 206 210 158 121 57 31 4 0 0 0
52 55 8 0 4 1 0 0 0 0 0 0 0 0 0 0 0 0 0 0 0 0 0 1 81 126 188 171 133 95 10 2 0
118 93 48 12 0 0 0 0 0 0 0 0 0 0 0 0 0 0 0 0 0 0 0 0 0 12 118 146 131 147 106 70 5
187 154 154 116 45 11 2 7 0 0 0 0 0 0 7 4 12 0 25 23 3 0 0 0 0 1 24 74 118 155 173 130 89
404 286 292 266 232 149 113 97 61 28 23 0 0 15 53 86 89 29 34 4 10 0 2 4 7 7 9 8 27 23 23 95 146
595 542 445 396 363 324 234 184 137 80 37 33 25 43 37 14 29 48 31 4 0 4 13 2 5 6 16 11 8 6 10 17 34
369 444 447 385 360 402 277 229 180 159 139 125 151 125 99 103 46 17 3 0 0 0 6 0 1 0 3 0 0 1 0 0 9
290 278 265 269 243 272 346 274 221 164 165 157 167 169 151 101 99 105 39 0 0 0 0 0 1 0 0 0 0 0 0 0 1

GFSFLT1_con_mucape_102.txt.gz
CAPE
11 10 14 92 98 86 99 201 200 133 128 149 0 0 0 0 0 0 0 0 4 8 8 12 7 12 5 10 8 6 6 7 10
7 6 54 133 300 140 160 160 158 65 77 1 0 0 0 0 0 0 0 0 1 1 3 6 8 7 6 10 5 7 7 10 10
12 83 333 309 154 147 155 146 93 13 4 20 0 0 0 0 0 0 0 0 0 0 1 2 3 5 6 5 5 7 6 10 9
22 88 194 183 112 101 122 71 34 0 0 0 6 0 0 0 0 0 0 0 0 0 0 0 1 3 3 3 4 4 8 9 9
119 85 115 160 231 148 71 28 0 0 0 0 0 0 0 0 0 0 0 0 0 0 0 0 0 2 2 3 3 5 6 5 10
6 6 58 103 119 131 76 42 19 0 0 0 0 0 0 0 0 0 0 0 0 0 0 0 0 0 1 2 2 3 3 4 6
0 0 18 91 69 56 38 28 9 0 0 0 0 0 0 0 0 0 0 0 0 0 0 0 0 0 0 0 1 2 1 3 4
0 0 0 0 2 14 21 2 0 0 0 0 0 0 0 0 0 0 0 0 0 0 0 0 0 0 0 0 1 1 2 4 0
0 0 0 0 0 0 0 0 0 0 0 0 0 0 0 0 0 0 0 52 0 0 0 0 0 0 0 0 0 0 0 0 0
12 11 0 0 0 4 0 0 0 0 0 0 0 0 0 0 0 0 0 2 125 18 0 0 0 0 0 0 0 0 0 0 0
129 79 26 17 12 16 18 30 34 27 0 0 0 0 0 0 0 0 0 0 38 182 92 24 1 0 0 0 0 0 0 0 0
215 104 56 54 64 64 48 44 21 7 0 0 0 0 0 0 0 0 0 0 0 22 65 137 143 48 25 3 0 0 0 0 0
171 177 119 115 122 116 88 64 13 0 0 0 0 0 0 0 0 0 0 0 0 0 15 238 217 168 137 112 91 12 13 6 0
15 13 82 192 138 127 62 36 8 0 0 0 0 0 0 0 0 0 0 0 0 0 0 0 68 170 202 113 151 113 84 29 11
16 48 80 78 70 51 24 5 0 0 0 0 0 0 0 0 0 0 0 0 0 2 1 0 0 18 57 88 132 176 104 125 90
65 23 34 24 11 4 7 5 10 3 0 0 0 0 0 0 0 0 0 19 9 60 6 18 26 6 0 15 42 35 41 73 139
210 157 71 49 36 19 21 15 16 28 29 14 0 1 0 0 6 15 40 19 34 26 18 32 38 12 2 1 4 9 11 12 44
376 348 199 119 117 105 87 88 73 91 75 70 51 24 16 24 56 68 68 57 65 67 35 24 25 3 0 0 0 2 2 1 10
367 303 226 208 223 202 133 126 155 113 111 108 91 69 69 53 29 40 55 53 68 53 21 20 17 15 0 0 0 0 0 0 0
286 234 220 269 233 159 159 122 106 107 127 82 54 50 62 75 47 0 51 63 67 16 14 10 8 12 0 0 0 0 0 0 0

GFSFLT1_con_mucape_105.txt.gz
CAPE
8 7 13 90 185 377 252 201 0 228 123 0 0 0 0 0 0 0 0 0 7 6 5 5 5 5 7 8 9 11 12 13 14
12 8 62 115 258 329 250 138 0 161 31 0 0 0 0 0 0 0 0 0 2 2 3 3 5 5 5 8 7 10 12 15 15
10 42 185 213 213 241 235 134 9 18 21 0 0 0 0 0 0 0 0 0 0 0 0 2 3 4 5 7 7 9 9 12 13
313 411 411 246 260 269 226 127 0 16 21 0 0 0 0 0 0 0 0 2 0 0 0 1 1 4 4 5 4 6 9 14 14
180 154 238 260 270 205 143 31 0 6 17 9 0 0 0 0 0 0 0 0 0 0 0 0 1 2 2 3 5 5 6 10 8
0 4 80 232 221 119 49 16 0 0 0 0 0 0 0 0 0 0 0 0 0 0 0 0 0 1 2 2 4 3 4 6 9
0 0 33 108 122 134 86 33 0 0 0 0 0 0 0 0 0 0 0 0 0 0 0 0 0 0 1 2 3 2 5 4 5
0 0 0 2 8 2 2 0 0 0 0 0 0 0 0 0 0 0 0 0 0 0 0 0 0 0 0 1 2 2 4 1 1
0 0 0 0 0 0 0 0 0 0 0 0 0 0 0 0 0 0 0 39 0 0 0 0 0 0 0 0 0 0 0 0 0
0 0 0 0 0 0 0 0 0 0 0 0 0 0 0 0 0 0 0 36 121 9 0 0 0 0 0 0 0 0 0 0 0
0 0 0 0 0 1 0 0 6 8 0 0 0 0 0 0 0 0 0 0 81 256 99 19 1 0 0 0 0 0 0 0 0
72 40 42 17 14 15 28 46 44 40 26 0 0 0 0 0 0 0 0 0 0 33 160 174 114 86 56 18 2 0 0 0 0
207 135 94 74 78 69 59 67 62 21 8 0 0 0 0 0 0 0 0 0 0 0 20 172 244 177 169 146 107 39 12 14 3
90 201 140 121 133 129 128 114 66 24 12 0 0 0 0 0 0 0 0 0 0 0 0 0 17 101 179 150 148 128 100 37 21
81 106 123 103 143 161 131 73 27 15 7 0 0 0 0 0 0 0 0 0 0 0 33 7 22 0 13 62 100 125 102 122 103
0 33 64 104 168 70 57 26 10 0 2 2 5 2 4 0 0 0 0 0 6 18 41 20 34 27 12 0 3 14 33 79 107
272 162 125 75 22 17 5 0 0 6 23 37 37 13 4 9 21 17 3 13 47 41 64 41 48 36 2 0 0 0 2 4 13
366 254 255 149 100 32 26 25 27 26 48 75 78 49 56 60 52 51 68 76 86 77 71 74 60 15 3 3 3 4 0 1 6
555 412 326 374 213 185 190 107 55 53 41 54 70 65 66 61 7 30 26 56 67 91 44 54 56 17 12 6 1 0 0 0 0
630 608 400 259 232 259 267 145 44 92 90 54 61 76 87 64 53 6 0 2 26 45 21 49 23 4 0 0 4 0 0 0 0

GFSFLT1_con_mucape_108.txt.gz
CAPE
5 8 37 191 510 446 112 110 123 0 0 0 0 0 0 0 0 0 0 0 4 5 5 5 5 5 7 9 12 14 14 15 14
10 9 110 361 609 281 82 114 95 28 0 0 0 0 0 0 0 0 0 0 2 3 4 4 5 6 7 9 10 9 15 14 21
8 18 246 541 357 195 70 75 63 21 0 0 0 0 0 0 0 0 0 3 1 3 3 4 4 5 7 6 10 9 14 14 17
42 207 424 538 475 401 183 51 41 31 3 0 0 0 0 0 0 0 0 6 1 1 2 3 5 5 5 5 7 7 10 10 11
416 244 382 534 489 385 270 84 34 37 16 0 0 0 0 0 0 0 0 1 1 0 1 2 2 3 3 3 5 6 6 9 13
45 57 96 235 319 167 69 22 16 9 0 0 0 0 0 0 0 0 0 0 0 0 0 1 1 2 2 3 2 4 6 10 10
0 0 76 179 125 93 46 0 0 0 0 0 0 0 0 0 0 0 0 0 0 0 0 0 0 0 1 2 1 3 4 4 3
0 0 0 0 0 0 0 0 0 0 0 0 0 0 0 0 0 0 0 0 0 0 0 0 0 0 0 0 1 1 0 2 2
0 0 0 0 0 0 0 0 0 0 0 0 0 0 0 0 0 0 0 0 0 0 0 0 0 0 0 0 0 0 0 0 0
0 0 0 0 0 0 0 0 0 0 0 0 0 0 0 0 0 0 0 1 69 4 0 0 0 0 0 0 0 0 0 0 0
0 0 0 0 0 0 0 0 0 0 0 0 0 0 0 0 0 0 0 0 37 203 81 25 11 1 0 0 0 0 0 0 0
0 0 0 0 0 0 2 5 20 32 25 0 0 0 0 0 0 0 0 0 0 14 220 167 130 91 59 32 1 0 0 0 0
12 7 32 16 13 10 17 31 30 30 7 7 0 0 0 0 0 0 0 0 0 0 14 101 197 171 173 116 92 70 3 2 2
128 106 74 69 54 52 55 60 55 54 22 4 0 0 0 0 0 0 0 0 0 0 0 9 9 54 129 136 123 86 99 53 32
137 162 146 97 94 101 101 108 95 55 8 0 0 0 0 0 0 0 0 0 0 0 4 10 25 32 19 44 95 91 80 97 112
5 20 122 136 108 112 164 127 86 12 0 0 0 5 8 17 14 13 2 0 0 13 31 25 35 31 32 2 0 0 18 33 82
104 84 40 40 54 107 142 77 31 5 0 3 0 2 27 41 23 20 27 28 29 46 65 59 65 54 20 1 0 0 0 0 0
251 268 198 165 146 99 59 16 11 17 39 33 34 45 58 71 45 37 60 64 56 66 69 73 83 89 28 2 0 0 0 0 0
430 323 266 188 184 114 56 67 54 45 48 49 54 58 52 59 34 12 12 6 24 39 27 41 68 67 14 3 0 0 0 0 0
448 409 395 294 203 184 146 144 139 105 53 9 13 14 27 51 56 37 7 10 0 4 17 43 50 53 28 1 0 0 0 0 0

GFSFLT1_con_mucape_111.txt.gz
CAPE
13 218 286 640 604 418 326 46 1 0 0 0 0 0 0 0 0 0 1 3 7 5 5 7 7 6 10 10 15 15 16 20 17
13 127 446 677 397 254 184 57 0 0 0 0 0 0 0 0 0 0 1 3 7 6 5 6 6 6 10 9 12 13 18 18 19
13 233 635 651 210 237 247 55 0 0 0 0 0 0 0 0 0 0 1 7 3 4 6 5 5 5 7 7 12 14 12 12 15
36 432 700 606 290 236 274 127 24 0 0 0 0 0 0 0 0 0 1 7 3 4 3 3 3 4 4 5 9 8 9 13 10
184 238 423 517 404 160 158 142 67 0 0 0 0 0 0 0 0 0 2 4 2 2 3 2 2 3 3 2 4 4 9 11 9
6 53 151 266 331 139 93 25 20 11 0 0 0 0 0 0 0 0 2 1 1 0 1 1 1 1 2 1 2 1 5 5 9
9 12 55 148 125 58 24 0 0 0 0 0 0 0 0 0 0 0 1 0 0 0 0 0 0 0 1 0 1 1 2 3 5
21 95 99 70 1 19 1 0 0 0 0 0 0 0 0 0 0 0 0 0 0 0 0 0 0 0 0 0 0 0 0 1 1
12 12 9 2 0 0 0 0 0 0 0 0 0 0 0 0 0 0 0 0 0 0 0 0 0 0 0 0 0 0 0 0 0
2 1 0 0 0 0 0 0 0 0 0 0 0 0 0 0 0 0 0 0 2 0 0 0 0 0 0 0 0 0 0 0 0
0 0 0 0 0 0 0 0 0 0 0 0 0 0 0 0 0 0 0 0 5 120 48 23 1 0 0 0 0 0 0 0 0
0 0 0 0 0 0 0 0 0 0 0 0 0 0 0 0 0 0 0 0 0 2 181 155 119 79 47 6 1 0 0 0 0
0 0 0 0 0 1 2 2 16 26 10 5 0 0 0 0 0 0 0 0 0 0 0 43 116 106 129 96 67 51 7 9 2
0 0 7 2 4 12 17 20 41 54 47 10 0 0 0 0 0 0 0 0 0 0 0 0 0 24 110 101 81 73 95 60 26
60 35 39 52 52 51 60 73 87 79 43 6 3 0 0 0 0 0 0 0 0 0 0 0 7 19 18 50 79 68 70 90 136
85 116 112 104 101 112 109 118 109 79 20 0 0 2 2 2 4 32 36 18 11 19 37 35 20 20 25 21 21 37 22 15 23
20 24 54 126 124 98 91 156 127 40 5 6 6 12 0 2 15 32 43 41 35 25 53 48 55 35 40 27 1 0 0 0 0
69 49 45 56 61 56 56 179 87 25 22 24 43 11 0 3 17 33 36 52 46 42 30 41 55 64 50 42 22 0 0 0 0
129 118 115 84 94 95 109 76 29 55 18 10 33 33 40 25 46 5 3 13 20 8 20 7 6 32 45 41 21 0 0 0 0
118 147 160 236 180 79 58 95 69 57 74 85 54 25 17 8 40 27 2 9 1 1 13 3 4 3 8 52 37 5 0 0 0

GFSFLT1_con_mucape_114.txt.gz
CAPE
653 690 900 752 554 489 115 6 2 0 1 0 0 0 0 0 0 0 0 2 7 7 7 7 9 9 12 15 13 20 16 17 18
597 710 778 645 592 238 6 0 0 0 0 0 0 0 0 0 0 0 0 4 6 7 7 8 9 9 10 13 15 14 12 21 20
388 798 651 503 434 174 5 0 0 0 0 0 0 0 0 0 0 0 0 13 8 7 6 6 5 6 6 10 11 11 12 11 19
277 776 554 463 505 304 136 0 0 0 0 0 0 0 0 0 0 0 1 11 5 5 3 2 2 4 4 6 6 9 11 6 17
391 398 366 358 354 299 193 32 0 0 0 0 0 0 0 0 0 0 1 5 5 5 4 2 3 1 2 3 3 6 4 6 9
193 121 187 165 189 242 233 83 0 0 0 0 0 0 0 0 0 0 7 2 2 3 3 2 2 2 1 2 2 3 3 4 2
132 78 81 147 75 75 57 11 0 0 0 0 0 0 0 0 0 0 5 1 1 0 1 1 1 1 0 0 1 1 1 2 2
128 119 80 80 0 1 0 0 0 0 0 0 0 0 0 0 0 0 0 0 0 0 0 0 0 0 0 0 0 0 0 0 0
27 70 95 22 35 1 0 0 0 0 0 0 0 0 0 0 0 0 0 1 0 0 0 0 0 0 0 0 0 0 0 0 0
84 97 144 58 29 3 0 0 0 0 0 0 0 0 0 0 0 2 0 0 1 0 0 0 0 0 0 0 0 0 0 0 0
8 10 35 11 0 0 0 0 0 0 0 0 0 0 0 0 0 0 0 0 3 53 6 2 1 0 0 0 0 0 0 0 0
1 0 0 0 0 0 0 0 0 1 11 11 0 0 0 0 0 0 0 0 0 8 185 121 116 58 30 2 0 0 0 0 0
0 0 0 0 0 0 0 0 8 72 66 51 24 10 0 0 0 0 0 0 0 1 19 113 162 169 170 117 105 43 3 2 0
0 0 0 0 4 21 40 62 90 108 82 25 12 0 0 0 0 0 0 0 0 22 4 0 16 85 145 183 139 108 140 95 47
0 0 10 37 65 70 63 80 82 102 59 4 0 5 0 0 0 0 0 0 0 16 21 43 15 3 17 138 120 92 80 166 173
93 106 112 139 159 143 127 166 157 111 36 41 27 10 0 3 0 6 0 8 29 57 75 104 53 38 16 36 38 54 48 33 51
254 263 234 206 214 237 175 128 103 217 79 44 31 60 37 0 0 2 15 11 13 27 21 26 33 38 38 36 42 2 0 0 8
173 176 205 223 206 193 227 265 331 275 27 0 95 97 94 74 5 2 17 22 32 36 22 23 27 25 45 49 43 19 9 0 0
81 53 58 132 177 166 151 173 215 42 11 9 39 142 158 91 40 0 1 6 7 28 28 19 7 12 15 13 29 16 24 2 0
105 90 103 62 102 42 41 48 59 10 91 178 108 69 81 45 44 10 2 7 2 1 0 0 2 1 4 0 2 40 41 23 1

GFSFLT1_con_mucape_117.txt.gz
CAPE
871 960 816 631 733 344 9 8 8 5 2 0 0 0 0 0 0 0 0 1 6 7 6 8 7 9 9 15 13 18 13 21 12
1038 982 781 695 543 173 4 1 0 0 0 0 0 0 0 0 0 0 1 4 6 9 8 10 9 12 13 11 13 12 13 10 6
1065 873 791 617 261 1 0 0 0 0 0 0 0 0 0 0 0 0 2 13 8 7 5 7 6 10 9 8 9 12 12 11 11
919 721 666 669 319 53 0 0 0 0 0 0 0 0 0 0 0 0 1 14 7 5 5 5 4 5 4 7 10 9 12 13 13
633 309 453 469 305 118 1 0 0 0 0 0 0 0 0 0 0 0 3 9 7 5 4 3 3 3 2 4 7 6 12 11 8
186 22 174 295 299 202 80 20 0 0 0 0 0 0 0 0 0 0 8 3 3 2 1 2 1 0 1 1 2 4 7 5 8
264 42 67 180 202 202 123 28 0 0 0 0 0 0 0 0 0 0 5 1 1 1 1 1 1 0 0 0 0 1 3 4 7
204 77 10 9 7 39 22 0 0 2 0 0 0 0 0 0 0 0 3 1 1 0 0 0 0 0 0 0 0 0 0 0 0
129 91 24 3 0 0 0 0 0 0 0 0 0 0 0 0 1 0 0 1 0 0 0 0 0 0 0 0 0 0 0 0 0
72 70 91 34 36 0 0 0 0 0 0 0 0 0 0 0 0 1 0 0 0 0 0 0 0 0 0 0 0 0 0 0 0
83 77 180 99 53 2 0 0 0 0 0 0 0 0 0 0 0 2 0 0 16 19 2 1 0 0 0 0 0 0 0 0 0
149 136 121 72 26 0 0 0 0 0 0 0 0 0 0 0 0 0 0 0 0 31 132 137 92 33 46 5 0 0 0 0 0
59 74 44 12 0 0 0 0 0 18 55 64 34 11 5 0 0 0 0 0 0 0 70 156 201 191 208 170 176 101 20 1 0
18 8 3 0 0 0 0 0 8 98 86 59 37 10 0 0 0 0 0 0 0 24 18 22 59 101 153 213 202 183 198 176 109
1 0 0 0 1 35 59 66 102 133 133 35 1 1 0 0 0 0 0 0 0 4 76 18 16 9 7 90 147 150 107 175 187
0 0 0 18 66 72 69 112 142 172 124 79 50 20 12 0 0 0 0 11 26 29 76 106 81 46 24 17 30 47 65 71 60
0 36 74 108 144 108 201 273 317 349 314 100 188 131 76 0 0 0 0 0 13 30 48 41 45 67 35 52 39 32 27 2 8
167 190 152 249 256 334 418 357 427 383 398 63 182 91 163 143 6 0 0 0 1 3 22 18 21 27 21 24 45 37 45 24 8
344 355 330 368 376 410 376 420 624 531 301 61 80 180 166 129 70 3 0 0 3 3 10 14 17 10 2 1 2 6 9 7 1
210 155 131 171 330 450 415 222 259 221 130 286 328 105 100 118 76 61 6 0 0 0 14 7 5 8 0 0 0 0 5 16 37

GFSFLT1_con_mucape_120.txt.gz
CAPE
1268 950 884 594 481 356 190 141 57 6 0 0 0 0 0 0 0 0 0 0 8 8 7 11 13 15 13 15 20 14 11 18 28
1050 698 756 502 288 52 16 8 3 0 0 0 0 0 0 0 0 0 0 2 8 9 7 11 11 13 13 17 15 16 3 20 23
928 696 707 475 63 3 0 0 0 0 0 0 0 0 0 0 0 0 0 13 8 6 5 5 8 6 10 14 13 16 13 15 20
911 704 479 290 43 2 0 0 0 0 0 0 0 0 0 0 0 0 0 15 5 5 4 4 5 4 8 9 9 10 12 17 17
548 404 293 205 0 0 0 0 0 0 0 0 0 0 0 0 0 0 2 9 6 5 4 3 3 3 7 5 7 8 7 8 8
81 130 139 126 12 6 0 0 0 0 0 0 0 0 0 0 0 0 10 10 6 4 3 2 2 2 3 3 5 5 4 7 8
15 55 61 137 62 41 18 0 0 0 0 0 0 0 0 0 0 0 4 3 2 2 1 1 0 1 0 0 1 2 2 5 5
19 16 17 11 49 24 2 0 0 0 0 0 0 0 0 0 0 0 0 1 1 0 1 0 0 0 0 0 0 0 0 0 0
15 6 4 0 0 0 0 0 0 0 0 0 0 0 0 0 0 0 0 0 0 0 0 0 0 0 0 0 0 0 0 0 0
17 2 0 0 0 0 0 0 0 0 0 0 0 0 0 0 0 0 0 0 3 0 0 0 0 0 0 0 0 0 0 0 0
16 5 0 0 0 0 0 0 0 0 0 0 0 0 0 0 0 0 0 0 1 12 0 0 0 0 0 0 0 0 0 0 0
5 7 4 0 36 0 0 0 0 0 0 0 0 0 0 0 0 0 0 0 0 48 68 93 76 73 54 19 0 0 0 0 0
2 4 54 19 3 0 0 0 0 0 4 22 7 0 0 0 0 0 0 0 0 3 110 213 209 217 230 210 190 134 74 36 5
6 13 18 4 0 0 0 0 0 13 45 37 18 4 0 0 0 0 0 0 0 4 26 39 101 125 149 175 208 174 180 161 163
4 5 3 0 0 0 0 0 7 57 59 33 0 0 0 0 0 0 0 0 0 0 8 24 24 36 44 55 127 151 92 80 90
4 0 0 0 0 0 12 33 62 92 68 30 0 0 0 0 0 0 0 0 0 1 6 29 12 40 43 24 31 30 33 36 23
0 0 0 0 2 33 42 67 95 101 64 2 12 6 0 4 1 1 0 0 0 8 21 52 37 33 36 38 38 39 47 42 17
0 0 0 19 79 91 94 156 161 120 156 45 19 3 25 46 22 3 0 0 0 0 4 20 27 33 34 43 25 21 46 35 31
0 40 47 137 135 144 221 211 176 258 226 121 5 8 33 29 31 1 0 0 0 0 1 5 18 19 22 4 7 0 0 6 12
179 121 206 229 228 237 216 215 231 216 144 53 59 38 12 16 20 0 0 0 0 0 0 0 0 0 0 0 0 0 0 0 5